Observation data for Hackberry on 04/23/2019      Previous  Date  Next       Current Mesonet Observations  Soil Data  Daily Summary Page  Observations in Plain Language
KHA3 230500Z 02006KT 17/16 A2998 RMK A01 T01650161  RH  098%=      5-min Rain = 0
KHA3 230501Z 02006KT 17/16 A2998 RMK A01 T01650161  RH  098%=      5-min Rain = 0
KHA3 230502Z 03007KT 17/16 A2998 RMK A01 T01650161  RH  098%=      5-min Rain = 0
KHA3 230503Z 03007KT 17/16 A2998 RMK A01 T01650161  RH  098%=      5-min Rain = 0
KHA3 230504Z 02007KT 17/16 A2998 RMK A01 T01650161  RH  098%=      5-min Rain = 0
KHA3 230505Z 02007KT 16/16 A2998 RMK A01 T01640161  RH  098%=      5-min Rain = 0
KHA3 230506Z 02007KT 16/16 A2998 RMK A01 T01640161  RH  098%=      5-min Rain = 0
KHA3 230507Z 01007KT 16/16 A2998 RMK A01 T01640161  RH  098%=      5-min Rain = 0
KHA3 230508Z 02007KT 16/16 A2998 RMK A01 T01640161  RH  098%=      5-min Rain = 0
KHA3 230509Z 01006KT 16/16 A2998 RMK A01 T01640161  RH  098%=      5-min Rain = 0
KHA3 230510Z 02006KT 16/16 A2998 RMK A01 T01640161  RH  098%=      5-min Rain = 0
KHA3 230511Z 02007KT 16/16 A2998 RMK A01 T01640161  RH  098%=      5-min Rain = 0
KHA3 230512Z 03006KT 16/16 A2998 RMK A01 T01640161  RH  098%=      5-min Rain = 0
KHA3 230513Z 02007KT 16/16 A2998 RMK A01 T01640160  RH  098%=      5-min Rain = 0
KHA3 230514Z 02005KT 16/16 A2998 RMK A01 T01640160  RH  098%=      5-min Rain = 0
KHA3 230515Z 02006KT 16/16 A2998 RMK A01 T01640161  RH  098%=      5-min Rain = 0
KHA3 230516Z 02006KT 16/16 A2998 RMK A01 T01640160  RH  098%=      5-min Rain = 0
KHA3 230517Z 02006KT 16/16 A2998 RMK A01 T01640161  RH  098%=      5-min Rain = 0
KHA3 230518Z 02007KT 16/16 A2998 RMK A01 T01640161  RH  098%=      5-min Rain = 0
KHA3 230519Z 02007KT 16/16 A2998 RMK A01 T01640161  RH  098%=      5-min Rain = 0
KHA3 230520Z 02007KT 16/16 A2998 RMK A01 T01640160  RH  098%=      5-min Rain = 0
KHA3 230521Z 03006KT 16/16 A2998 RMK A01 T01630160  RH  098%=      5-min Rain = 0
KHA3 230522Z 03005KT 16/16 A2998 RMK A01 T01640160  RH  098%=      5-min Rain = 0
KHA3 230523Z 03005KT 16/16 A2998 RMK A01 T01640161  RH  098%=      5-min Rain = 0
KHA3 230524Z 02004KT 16/16 A2999 RMK A01 T01640161  RH  098%=      5-min Rain = 0
KHA3 230525Z 03005KT 16/16 A2999 RMK A01 T01640161  RH  098%=      5-min Rain = 0
KHA3 230526Z 03005KT 16/16 A2999 RMK A01 T01640161  RH  098%=      5-min Rain = 0
KHA3 230527Z 03004KT 16/16 A2999 RMK A01 T01640161  RH  098%=      5-min Rain = 0
KHA3 230528Z 02004KT 16/16 A2999 RMK A01 T01640161  RH  098%=      5-min Rain = 0
KHA3 230529Z 02003KT 16/16 A2999 RMK A01 T01640161  RH  098%=      5-min Rain = 0
KHA3 230530Z 02003KT 16/16 A2999 RMK A01 T01640161  RH  098%=      5-min Rain = 0
KHA3 230531Z 01004KT 16/16 A2999 RMK A01 T01640161  RH  098%=      5-min Rain = 0
KHA3 230532Z 02003KT 16/16 A2999 RMK A01 T01640161  RH  098%=      5-min Rain = 0
KHA3 230533Z 02003KT 16/16 A2999 RMK A01 T01640161  RH  098%=      5-min Rain = 0
KHA3 230534Z 02002KT 16/16 A2999 RMK A01 T01640161  RH  098%=      5-min Rain = 0
KHA3 230535Z 03003KT 16/16 A2999 RMK A01 T01640161  RH  098%=      5-min Rain = 0
KHA3 230536Z 03002KT 16/16 A2999 RMK A01 T01640162  RH  098%=      5-min Rain = 0
KHA3 230537Z 03002KT 16/16 A2999 RMK A01 T01640161  RH  098%=      5-min Rain = 0
KHA3 230538Z 04003KT 16/16 A2999 RMK A01 T01640162  RH  098%=      5-min Rain = 0
KHA3 230539Z 05002KT 16/16 A2999 RMK A01 T01640162  RH  098%=      5-min Rain = 0
KHA3 230540Z 05003KT 16/16 A2999 RMK A01 T01640162  RH  098%=      5-min Rain = 0
KHA3 230541Z 04003KT 16/16 A2999 RMK A01 T01640162  RH  098%=      5-min Rain = 0
KHA3 230542Z 05003KT 17/16 A2999 RMK A01 T01650162  RH  098%=      5-min Rain = 0
KHA3 230543Z 05003KT 17/16 A2999 RMK A01 T01650162  RH  098%=      5-min Rain = 0
KHA3 230544Z 05003KT 17/16 A2999 RMK A01 T01650162  RH  098%=      5-min Rain = 0
KHA3 230545Z 05002KT 17/16 A2999 RMK A01 T01650162  RH  098%=      5-min Rain = 0
KHA3 230546Z 03001KT 17/16 A2999 RMK A01 T01650162  RH  098%=      5-min Rain = 0
KHA3 230547Z 01000KT 17/16 A2999 RMK A01 T01650162  RH  098%=      5-min Rain = 0
KHA3 230548Z 29002KT 17/16 A30 RMK A01 T01650162  RH  098%=      5-min Rain = 0
KHA3 230549Z 28003KT 17/16 A30 RMK A01 T01650163  RH  098%=      5-min Rain = 0
KHA3 230550Z 27006KT 17/16 A30 RMK A01 T01660163  RH  098%=      5-min Rain = 0
KHA3 230551Z 27008KT 17/16 A3001 RMK A01 T01660164  RH  098%=      5-min Rain = 0
KHA3 230552Z 27011KT 17/16 A3001 RMK A01 T01660164  RH  098%=      5-min Rain = 0
KHA3 230553Z 27011KT 17/16 A3001 RMK A01 T01670164  RH  098%=      5-min Rain = 0
KHA3 230554Z 27013KT 17/16 A3001 RMK A01 T01670164  RH  098%=      5-min Rain = 0
KHA3 230555Z 28013KT 17/16 A3002 RMK A01 T01660163  RH  098%=      5-min Rain = 0
KHA3 230556Z 29014KT 17/16 A3002 RMK A01 T01650162  RH  098%=      5-min Rain = 0
KHA3 230557Z 29013KT 16/16 A3002 RMK A01 T01640161  RH  098%=      5-min Rain = 0
KHA3 230558Z 30011KT 16/16 A3001 RMK A01 T01640160  RH  098%=      5-min Rain = 0
KHA3 230559Z 30011KT 16/16 A3001 RMK A01 T01640159  RH  097%=      5-min Rain = 0
KHA3 230600Z 30011KT 16/16 A3001 RMK A01 T01640158  RH  096%=      5-min Rain = 0
KHA3 230601Z 30010KT 17/16 A3001 RMK A01 T01650158  RH  096%=      5-min Rain = 0
KHA3 230602Z 31009KT 16/16 A3001 RMK A01 T01640158  RH  096%=      5-min Rain = 0
KHA3 230603Z 30009KT 16/16 A3001 RMK A01 T01640158  RH  096%=      5-min Rain = 0
KHA3 230604Z 29009KT 17/16 A3001 RMK A01 T01650158  RH  096%=      5-min Rain = 0
KHA3 230605Z 29012KT 16/16 A3001 RMK A01 T01640157  RH  095%=      5-min Rain = 0
KHA3 230606Z 31011KT 17/16 A3001 RMK A01 T01650157  RH  095%=      5-min Rain = 0
KHA3 230607Z 31012KT 16/16 A3001 RMK A01 T01640155  RH  095%=      5-min Rain = 0
KHA3 230608Z 31012KT 16/15 A3001 RMK A01 T01630154  RH  094%=      5-min Rain = 0
KHA3 230609Z 30012G19KT 16/15 A3001 RMK A01 T01630154  RH  095%=      5-min Rain = 0.01
KHA3 230610Z 31017G22KT 16/15 A3001 RMK A01 T01620152  RH  094%=      5-min Rain = 0
KHA3 230611Z 29015KT 16/15 A3001 RMK A01 T01620150  RH  093%=      5-min Rain = 0
KHA3 230612Z 29016KT 16/15 A3001 RMK A01 T01620151  RH  093%=      5-min Rain = 0
KHA3 230613Z 31018G24KT 16/15 A3001 RMK A01 T01610150  RH  093%=      5-min Rain = 0
KHA3 230614Z 29016G22KT 16/15 A3001 RMK A01 T01610149  RH  092%=      5-min Rain = 0
KHA3 230615Z 30015G21KT 16/15 A3001 RMK A01 T01620150  RH  093%=      5-min Rain = 0
KHA3 230616Z 30014KT 16/15 A3001 RMK A01 T01610150  RH  093%=      5-min Rain = 0
KHA3 230617Z 31011KT 16/15 A3001 RMK A01 T01610150  RH  093%=      5-min Rain = 0
KHA3 230618Z 33018KT 16/15 A3001 RMK A01 T01600150  RH  094%=      5-min Rain = 0
KHA3 230619Z 33016KT 16/15 A3001 RMK A01 T01600149  RH  093%=      5-min Rain = 0
KHA3 230620Z 32020KT 16/15 A3001 RMK A01 T01600149  RH  093%=      5-min Rain = 0
KHA3 230621Z 32017KT 16/15 A3001 RMK A01 T01600149  RH  093%=      5-min Rain = 0
KHA3 230622Z 33012KT 16/15 A3001 RMK A01 T01590149  RH  094%=      5-min Rain = 0
KHA3 230623Z 35016KT 16/15 A3001 RMK A01 T01590150  RH  094%=      5-min Rain = 0
KHA3 230624Z 35015KT 16/15 A3001 RMK A01 T01580149  RH  094%=      5-min Rain = 0
KHA3 230625Z 35015KT 16/15 A3001 RMK A01 T01580149  RH  094%=      5-min Rain = 0
KHA3 230626Z 36016KT 16/15 A30 RMK A01 T01580149  RH  095%=      5-min Rain = 0
KHA3 230627Z 00015KT 16/15 A30 RMK A01 T01580150  RH  095%=      5-min Rain = 0
KHA3 230628Z 35014KT 16/15 A30 RMK A01 T01580150  RH  095%=      5-min Rain = 0
KHA3 230629Z 36015KT 16/15 A30 RMK A01 T01580149  RH  095%=      5-min Rain = 0
KHA3 230630Z 36013KT 16/15 A30 RMK A01 T01580149  RH  095%=      5-min Rain = 0
KHA3 230631Z 36013KT 16/15 A30 RMK A01 T01590150  RH  095%=      5-min Rain = 0
KHA3 230632Z 36013G18KT 16/15 A30 RMK A01 T01590150  RH  094%=      5-min Rain = 0
KHA3 230633Z 35015KT 16/15 A30 RMK A01 T01590150  RH  094%=      5-min Rain = 0.01
KHA3 230634Z 35015KT 16/15 A30 RMK A01 T01590149  RH  094%=      5-min Rain = 0
KHA3 230635Z 35016KT 16/15 A30 RMK A01 T01590150  RH  094%=      5-min Rain = 0
KHA3 230636Z 35016KT 16/15 A30 RMK A01 T01590150  RH  094%=      5-min Rain = 0
KHA3 230637Z 36018KT 16/15 A30 RMK A01 T01590150  RH  094%=      5-min Rain = 0
KHA3 230638Z 35016KT 16/15 A30 RMK A01 T01590150  RH  095%=      5-min Rain = 0
KHA3 230639Z 35016KT 16/15 A30 RMK A01 T01590150  RH  095%=      5-min Rain = 0
KHA3 230640Z 35015KT 16/15 A30 RMK A01 T01590150  RH  094%=      5-min Rain = 0
KHA3 230641Z 35015KT 16/15 A30 RMK A01 T01590149  RH  094%=      5-min Rain = 0
KHA3 230642Z 35012KT 16/15 A30 RMK A01 T01580149  RH  094%=      5-min Rain = 0
KHA3 230643Z 35009KT 16/15 A30 RMK A01 T01580149  RH  094%=      5-min Rain = 0
KHA3 230644Z 00007KT 16/15 A30 RMK A01 T01580150  RH  095%=      5-min Rain = 0
KHA3 230645Z 35009KT 16/15 A30 RMK A01 T01580150  RH  095%=      5-min Rain = 0
KHA3 230646Z 00011KT 16/15 A30 RMK A01 T01570150  RH  095%=      5-min Rain = 0
KHA3 230647Z 00012KT 16/15 A30 RMK A01 T01570148  RH  095%=      5-min Rain = 0
KHA3 230648Z 00012KT 16/15 A30 RMK A01 T01560147  RH  094%=      5-min Rain = 0
KHA3 230649Z 00011KT 16/15 A30 RMK A01 T01560146  RH  094%=      5-min Rain = 0
KHA3 230650Z 00010KT 16/15 A30 RMK A01 T01550145  RH  094%=      5-min Rain = 0
KHA3 230651Z 00010KT 16/15 A30 RMK A01 T01550145  RH  094%=      5-min Rain = 0
KHA3 230652Z 00009KT 16/15 A30 RMK A01 T01550146  RH  094%=      5-min Rain = 0
KHA3 230653Z 00008KT 16/15 A30 RMK A01 T01550146  RH  095%=      5-min Rain = 0
KHA3 230654Z 00010KT 16/15 A30 RMK A01 T01550147  RH  095%=      5-min Rain = 0
KHA3 230655Z 36011KT 16/15 A30 RMK A01 T01550147  RH  095%=      5-min Rain = 0
KHA3 230656Z 36009KT 16/15 A30 RMK A01 T01550147  RH  095%=      5-min Rain = 0
KHA3 230657Z 36010KT 15/15 A30 RMK A01 T01540148  RH  096%=      5-min Rain = 0
KHA3 230658Z 00011KT 15/15 A30 RMK A01 T01540148  RH  096%=      5-min Rain = 0
KHA3 230659Z 00009KT 15/15 A30 RMK A01 T01540148  RH  096%=      5-min Rain = 0
KHA3 230700Z 01010KT 15/15 A30 RMK A01 T01540148  RH  096%=      5-min Rain = 0
KHA3 230701Z 01010KT 15/15 A30 RMK A01 T01540148  RH  096%=      5-min Rain = 0
KHA3 230702Z 02008KT 15/15 A30 RMK A01 T01530147  RH  096%=      5-min Rain = 0
KHA3 230703Z 01008KT 15/15 A30 RMK A01 T01530147  RH  096%=      5-min Rain = 0
KHA3 230704Z 01011KT 15/15 A30 RMK A01 T01530146  RH  096%=      5-min Rain = 0
KHA3 230705Z 00011KT 15/15 A30 RMK A01 T01520145  RH  095%=      5-min Rain = 0
KHA3 230706Z 01009KT 15/15 A30 RMK A01 T01520145  RH  095%=      5-min Rain = 0
KHA3 230707Z 01009KT 15/15 A30 RMK A01 T01530145  RH  095%=      5-min Rain = 0
KHA3 230708Z 02008KT 15/15 A2999 RMK A01 T01520145  RH  095%=      5-min Rain = 0
KHA3 230709Z 02010KT 15/15 A2999 RMK A01 T01530145  RH  095%=      5-min Rain = 0
KHA3 230710Z 03009KT 15/15 A2999 RMK A01 T01520145  RH  095%=      5-min Rain = 0
KHA3 230711Z 03009KT 15/14 A2999 RMK A01 T01520144  RH  095%=      5-min Rain = 0
KHA3 230712Z 03006KT 15/15 A2999 RMK A01 T01520145  RH  095%=      5-min Rain = 0
KHA3 230713Z 03006KT 15/15 A2999 RMK A01 T01520145  RH  096%=      5-min Rain = 0
KHA3 230714Z 03008KT 15/15 A2999 RMK A01 T01520145  RH  096%=      5-min Rain = 0
KHA3 230715Z 03007KT 15/14 A2999 RMK A01 T01510144  RH  096%=      5-min Rain = 0
KHA3 230716Z 03008KT 15/15 A2999 RMK A01 T01520145  RH  096%=      5-min Rain = 0
KHA3 230717Z 03009KT 15/15 A2999 RMK A01 T01510145  RH  096%=      5-min Rain = 0
KHA3 230718Z 02009KT 15/15 A2999 RMK A01 T01510145  RH  096%=      5-min Rain = 0
KHA3 230719Z 03009KT 15/15 A2999 RMK A01 T01520145  RH  096%=      5-min Rain = 0
KHA3 230720Z 03010KT 15/15 A2999 RMK A01 T01520146  RH  096%=      5-min Rain = 0
KHA3 230721Z 03010KT 15/15 A2999 RMK A01 T01510145  RH  096%=      5-min Rain = 0
KHA3 230722Z 03010KT 15/15 A2999 RMK A01 T01510145  RH  096%=      5-min Rain = 0
KHA3 230723Z 03013KT 15/15 A2999 RMK A01 T01510145  RH  096%=      5-min Rain = 0
KHA3 230724Z 03012KT 15/15 A2999 RMK A01 T01510145  RH  096%=      5-min Rain = 0
KHA3 230725Z 03013KT 15/14 A2999 RMK A01 T01510144  RH  095%=      5-min Rain = 0
KHA3 230726Z 02014KT 15/14 A2999 RMK A01 T01510143  RH  095%=      5-min Rain = 0
KHA3 230727Z 03012KT 15/14 A2999 RMK A01 T01500142  RH  095%=      5-min Rain = 0
KHA3 230728Z 03012KT 15/14 A2999 RMK A01 T01500141  RH  094%=      5-min Rain = 0
KHA3 230729Z 03013KT 15/14 A2999 RMK A01 T01500141  RH  094%=      5-min Rain = 0
KHA3 230730Z 03011KT 15/14 A2999 RMK A01 T01500140  RH  094%=      5-min Rain = 0
KHA3 230731Z 03012KT 15/14 A2999 RMK A01 T01500140  RH  094%=      5-min Rain = 0
KHA3 230732Z 03012KT 15/14 A2999 RMK A01 T01490139  RH  093%=      5-min Rain = 0
KHA3 230733Z 03010KT 15/14 A2999 RMK A01 T01490138  RH  093%=      5-min Rain = 0
KHA3 230734Z 03010KT 15/14 A2999 RMK A01 T01490139  RH  093%=      5-min Rain = 0
KHA3 230735Z 03012KT 15/14 A2999 RMK A01 T01490138  RH  093%=      5-min Rain = 0
KHA3 230736Z 04012KT 15/14 A2999 RMK A01 T01480137  RH  093%=      5-min Rain = 0
KHA3 230737Z 04009KT 15/14 A2999 RMK A01 T01480136  RH  093%=      5-min Rain = 0
KHA3 230738Z 04010KT 15/14 A2999 RMK A01 T01480137  RH  093%=      5-min Rain = 0
KHA3 230739Z 03008KT 15/14 A2999 RMK A01 T01480137  RH  093%=      5-min Rain = 0
KHA3 230740Z 02007KT 15/14 A2999 RMK A01 T01480137  RH  093%=      5-min Rain = 0
KHA3 230741Z 02008KT 15/14 A2999 RMK A01 T01480137  RH  093%=      5-min Rain = 0
KHA3 230742Z 02006KT 15/14 A2999 RMK A01 T01480138  RH  093%=      5-min Rain = 0
KHA3 230743Z 01006KT 15/14 A30 RMK A01 T01480138  RH  093%=      5-min Rain = 0
KHA3 230744Z 01007KT 15/14 A30 RMK A01 T01480138  RH  094%=      5-min Rain = 0
KHA3 230745Z 01008KT 15/14 A30 RMK A01 T01480138  RH  094%=      5-min Rain = 0
KHA3 230746Z 01008KT 15/14 A30 RMK A01 T01480138  RH  094%=      5-min Rain = 0
KHA3 230747Z 00009KT 15/14 A30 RMK A01 T01490139  RH  094%=      5-min Rain = 0
KHA3 230748Z 01009KT 15/14 A2999 RMK A01 T01490139  RH  094%=      5-min Rain = 0
KHA3 230749Z 01009KT 15/14 A2999 RMK A01 T01490139  RH  094%=      5-min Rain = 0
KHA3 230750Z 01010KT 15/14 A2999 RMK A01 T01490139  RH  094%=      5-min Rain = 0
KHA3 230751Z 00010KT 15/14 A2999 RMK A01 T01490139  RH  094%=      5-min Rain = 0
KHA3 230752Z 00009KT 15/14 A2999 RMK A01 T01490139  RH  093%=      5-min Rain = 0
KHA3 230753Z 00009KT 15/14 A2999 RMK A01 T01490138  RH  093%=      5-min Rain = 0
KHA3 230754Z 36008KT 15/14 A2999 RMK A01 T01490138  RH  093%=      5-min Rain = 0
KHA3 230755Z 35009KT 15/14 A30 RMK A01 T01490138  RH  093%=      5-min Rain = 0
KHA3 230756Z 35008KT 15/14 A30 RMK A01 T01490137  RH  092%=      5-min Rain = 0
KHA3 230757Z 34006KT 15/14 A30 RMK A01 T01490137  RH  092%=      5-min Rain = 0
KHA3 230758Z 35007KT 15/14 A30 RMK A01 T01490137  RH  092%=      5-min Rain = 0
KHA3 230759Z 35008KT 15/14 A30 RMK A01 T01490136  RH  092%=      5-min Rain = 0
KHA3 230800Z 36007KT 15/14 A30 RMK A01 T01490136  RH  092%=      5-min Rain = 0
KHA3 230801Z 00007KT 15/14 A30 RMK A01 T01490135  RH  091%=      5-min Rain = 0
KHA3 230802Z 01009KT 15/14 A30 RMK A01 T01490135  RH  092%=      5-min Rain = 0
KHA3 230803Z 02010KT 15/13 A2999 RMK A01 T01490134  RH  091%=      5-min Rain = 0
KHA3 230804Z 03009KT 15/13 A2999 RMK A01 T01490133  RH  090%=      5-min Rain = 0
KHA3 230805Z 03010KT 15/13 A2999 RMK A01 T01490133  RH  090%=      5-min Rain = 0
KHA3 230806Z 03010KT 15/13 A2999 RMK A01 T01480133  RH  091%=      5-min Rain = 0
KHA3 230807Z 04010KT 15/13 A2999 RMK A01 T01480134  RH  091%=      5-min Rain = 0
KHA3 230808Z 03010KT 15/13 A2998 RMK A01 T01480134  RH  091%=      5-min Rain = 0
KHA3 230809Z 03010KT 15/14 A2998 RMK A01 T01480135  RH  092%=      5-min Rain = 0
KHA3 230810Z 03012KT 15/14 A2998 RMK A01 T01480135  RH  092%=      5-min Rain = 0
KHA3 230811Z 03009KT 15/14 A2998 RMK A01 T01480136  RH  092%=      5-min Rain = 0
KHA3 230812Z 03009KT 15/14 A2998 RMK A01 T01480136  RH  093%=      5-min Rain = 0
KHA3 230813Z 03009KT 15/14 A2998 RMK A01 T01480137  RH  093%=      5-min Rain = 0
KHA3 230814Z 03008KT 15/14 A2998 RMK A01 T01480138  RH  094%=      5-min Rain = 0
KHA3 230815Z 03009KT 15/14 A2998 RMK A01 T01480138  RH  094%=      5-min Rain = 0
KHA3 230816Z 04009KT 15/14 A2998 RMK A01 T01480139  RH  094%=      5-min Rain = 0
KHA3 230817Z 04010KT 15/14 A2998 RMK A01 T01480139  RH  095%=      5-min Rain = 0
KHA3 230818Z 04009KT 15/14 A2998 RMK A01 T01480140  RH  095%=      5-min Rain = 0.01
KHA3 230819Z 04010KT 15/14 A2998 RMK A01 T01480140  RH  095%=      5-min Rain = 0
KHA3 230820Z 05011KT 15/14 A2998 RMK A01 T01490141  RH  095%=      5-min Rain = 0
KHA3 230821Z 05012KT 15/14 A2998 RMK A01 T01490142  RH  096%=      5-min Rain = 0
KHA3 230822Z 05011KT 15/14 A2998 RMK A01 T01490143  RH  096%=      5-min Rain = 0
KHA3 230823Z 05012KT 15/14 A2998 RMK A01 T01500144  RH  096%=      5-min Rain = 0
KHA3 230824Z 05011KT 15/14 A2998 RMK A01 T01500144  RH  096%=      5-min Rain = 0
KHA3 230825Z 05010KT 15/14 A2998 RMK A01 T01500144  RH  096%=      5-min Rain = 0
KHA3 230826Z 05013KT 15/15 A2998 RMK A01 T01500145  RH  097%=      5-min Rain = 0
KHA3 230827Z 04012KT 15/15 A2998 RMK A01 T01510145  RH  097%=      5-min Rain = 0
KHA3 230828Z 04012KT 15/15 A2998 RMK A01 T01510146  RH  097%=      5-min Rain = 0
KHA3 230829Z 04012KT 15/15 A2998 RMK A01 T01510146  RH  097%=      5-min Rain = 0
KHA3 230830Z 03012KT 15/15 A2998 RMK A01 T01510146  RH  097%=      5-min Rain = 0
KHA3 230831Z 03013KT 15/15 A2998 RMK A01 T01510146  RH  097%=      5-min Rain = 0
KHA3 230832Z 02009KT 15/15 A2998 RMK A01 T01520147  RH  097%=      5-min Rain = 0
KHA3 230833Z 03010KT 15/15 A2998 RMK A01 T01520147  RH  097%=      5-min Rain = 0
KHA3 230834Z 02010KT 15/15 A2998 RMK A01 T01520147  RH  097%=      5-min Rain = 0
KHA3 230835Z 02011KT 15/15 A2998 RMK A01 T01520147  RH  097%=      5-min Rain = 0
KHA3 230836Z 03011KT 15/15 A2998 RMK A01 T01520147  RH  097%=      5-min Rain = 0
KHA3 230837Z 03011KT 15/15 A2998 RMK A01 T01510146  RH  097%=      5-min Rain = 0.01
KHA3 230838Z 02011KT 15/15 A2998 RMK A01 T01520146  RH  097%=      5-min Rain = 0
KHA3 230839Z 02010KT 15/15 A2998 RMK A01 T01520146  RH  096%=      5-min Rain = 0
KHA3 230840Z 02009KT 15/15 A2998 RMK A01 T01520146  RH  096%=      5-min Rain = 0
KHA3 230841Z 02010KT 15/15 A2998 RMK A01 T01520146  RH  096%=      5-min Rain = 0
KHA3 230842Z 02010KT 15/15 A2998 RMK A01 T01520146  RH  096%=      5-min Rain = 0
KHA3 230843Z 02010KT 15/15 A2998 RMK A01 T01510145  RH  096%=      5-min Rain = 0
KHA3 230844Z 02010KT 15/14 A2999 RMK A01 T01510144  RH  096%=      5-min Rain = 0
KHA3 230845Z 02010KT 15/14 A2999 RMK A01 T01510144  RH  096%=      5-min Rain = 0
KHA3 230846Z 01011KT 15/14 A2999 RMK A01 T01510143  RH  095%=      5-min Rain = 0
KHA3 230847Z 02008KT 15/14 A2999 RMK A01 T01510143  RH  095%=      5-min Rain = 0
KHA3 230848Z 02006KT 15/14 A2999 RMK A01 T01510143  RH  095%=      5-min Rain = 0
KHA3 230849Z 02006KT 15/14 A2999 RMK A01 T01510143  RH  095%=      5-min Rain = 0.01
KHA3 230850Z 02008KT 15/14 A2999 RMK A01 T01510143  RH  095%=      5-min Rain = 0
KHA3 230851Z 02008KT 15/14 A2999 RMK A01 T01510143  RH  095%=      5-min Rain = 0
KHA3 230852Z 02008KT 15/14 A2999 RMK A01 T01510142  RH  095%=      5-min Rain = 0
KHA3 230853Z 03009KT 15/14 A2999 RMK A01 T01510142  RH  095%=      5-min Rain = 0
KHA3 230854Z 03008KT 15/14 A2999 RMK A01 T01510143  RH  095%=      5-min Rain = 0
KHA3 230855Z 03009KT 15/14 A2999 RMK A01 T01500142  RH  095%=      5-min Rain = 0
KHA3 230856Z 04010KT 15/14 A2999 RMK A01 T01500142  RH  095%=      5-min Rain = 0
KHA3 230857Z 04009KT 15/14 A2999 RMK A01 T01500142  RH  095%=      5-min Rain = 0
KHA3 230858Z 04010KT 15/14 A2999 RMK A01 T01500142  RH  095%=      5-min Rain = 0
KHA3 230859Z 04012KT 15/14 A2999 RMK A01 T01500142  RH  095%=      5-min Rain = 0
KHA3 230900Z 05011KT 15/14 A2998 RMK A01 T01500142  RH  095%=      5-min Rain = 0.01
KHA3 230901Z 04012KT 15/14 A2998 RMK A01 T01500142  RH  095%=      5-min Rain = 0
KHA3 230902Z 05011KT 15/14 A2998 RMK A01 T01490142  RH  095%=      5-min Rain = 0
KHA3 230903Z 05011KT 15/14 A2998 RMK A01 T01500142  RH  095%=      5-min Rain = 0
KHA3 230904Z 05012KT 15/14 A2998 RMK A01 T01500143  RH  095%=      5-min Rain = 0
KHA3 230905Z 05011KT 15/14 A2998 RMK A01 T01500143  RH  096%=      5-min Rain = 0
KHA3 230906Z 05011KT 15/14 A2998 RMK A01 T01500144  RH  096%=      5-min Rain = 0
KHA3 230907Z 05012KT 15/14 A2998 RMK A01 T01500144  RH  096%=      5-min Rain = 0
KHA3 230908Z 05011KT 15/14 A2998 RMK A01 T01500144  RH  096%=      5-min Rain = 0
KHA3 230909Z 05009KT 15/14 A2998 RMK A01 T01500144  RH  096%=      5-min Rain = 0
KHA3 230910Z 05011KT 15/14 A2998 RMK A01 T01500144  RH  097%=      5-min Rain = 0
KHA3 230911Z 05010KT 15/14 A2998 RMK A01 T01500144  RH  097%=      5-min Rain = 0
KHA3 230912Z 05009KT 15/14 A2998 RMK A01 T01490144  RH  097%=      5-min Rain = 0
KHA3 230913Z 05012KT 15/14 A2998 RMK A01 T01490144  RH  097%=      5-min Rain = 0
KHA3 230914Z 05011KT 15/14 A2998 RMK A01 T01490144  RH  097%=      5-min Rain = 0.01
KHA3 230915Z 05011KT 15/15 A2998 RMK A01 T01490145  RH  097%=      5-min Rain = 0
KHA3 230916Z 05010KT 15/15 A2998 RMK A01 T01490145  RH  097%=      5-min Rain = 0
KHA3 230917Z 05011KT 15/15 A2998 RMK A01 T01490145  RH  097%=      5-min Rain = 0
KHA3 230918Z 06009KT 15/15 A2998 RMK A01 T01490145  RH  097%=      5-min Rain = 0
KHA3 230919Z 06012KT 15/15 A2998 RMK A01 T01490145  RH  097%=      5-min Rain = 0
KHA3 230920Z 05012KT 15/15 A2998 RMK A01 T01500146  RH  097%=      5-min Rain = 0
KHA3 230921Z 06011KT 15/15 A2998 RMK A01 T01500146  RH  097%=      5-min Rain = 0
KHA3 230922Z 05011KT 15/15 A2998 RMK A01 T01500146  RH  097%=      5-min Rain = 0
KHA3 230923Z 06011KT 15/15 A2998 RMK A01 T01500146  RH  097%=      5-min Rain = 0
KHA3 230924Z 06011KT 15/15 A2998 RMK A01 T01500146  RH  098%=      5-min Rain = 0
KHA3 230925Z 06013KT 15/15 A2998 RMK A01 T01500147  RH  098%=      5-min Rain = 0
KHA3 230926Z 06012KT 15/15 A2998 RMK A01 T01500147  RH  098%=      5-min Rain = 0
KHA3 230927Z 06012KT 15/15 A2998 RMK A01 T01500147  RH  098%=      5-min Rain = 0
KHA3 230928Z 06012KT 15/15 A2997 RMK A01 T01500146  RH  098%=      5-min Rain = 0
KHA3 230929Z 05012KT 15/15 A2997 RMK A01 T01510147  RH  098%=      5-min Rain = 0
KHA3 230930Z 06012KT 15/15 A2998 RMK A01 T01500147  RH  098%=      5-min Rain = 0
KHA3 230931Z 06012KT 15/15 A2998 RMK A01 T01510147  RH  098%=      5-min Rain = 0
KHA3 230932Z 05011KT 15/15 A2998 RMK A01 T01510147  RH  098%=      5-min Rain = 0
KHA3 230933Z 05013KT 15/15 A2998 RMK A01 T01510147  RH  098%=      5-min Rain = 0
KHA3 230934Z 05010KT 15/15 A2998 RMK A01 T01510147  RH  098%=      5-min Rain = 0
KHA3 230935Z 06011KT 15/15 A2998 RMK A01 T01520148  RH  098%=      5-min Rain = 0
KHA3 230936Z 05012KT 15/15 A2998 RMK A01 T01510147  RH  098%=      5-min Rain = 0
KHA3 230937Z 05010KT 15/15 A2998 RMK A01 T01510147  RH  098%=      5-min Rain = 0
KHA3 230938Z 05010KT 15/15 A2998 RMK A01 T01510148  RH  098%=      5-min Rain = 0
KHA3 230939Z 05010KT 15/15 A2998 RMK A01 T01520148  RH  098%=      5-min Rain = 0
KHA3 230940Z 06008KT 15/15 A2998 RMK A01 T01520148  RH  098%=      5-min Rain = 0
KHA3 230941Z 05010KT 15/15 A2998 RMK A01 T01510148  RH  098%=      5-min Rain = 0
KHA3 230942Z 05010KT 15/15 A2998 RMK A01 T01520148  RH  098%=      5-min Rain = 0.01
KHA3 230943Z 06010KT 15/15 A2998 RMK A01 T01520148  RH  098%=      5-min Rain = 0
KHA3 230944Z 05009KT 15/15 A2998 RMK A01 T01520148  RH  098%=      5-min Rain = 0
KHA3 230945Z 06009KT 15/15 A2998 RMK A01 T01520148  RH  098%=      5-min Rain = 0
KHA3 230946Z 05010KT 15/15 A2997 RMK A01 T01510148  RH  098%=      5-min Rain = 0
KHA3 230947Z 06010KT 15/15 A2997 RMK A01 T01510148  RH  098%=      5-min Rain = 0
KHA3 230948Z 05010KT 15/15 A2997 RMK A01 T01510148  RH  098%=      5-min Rain = 0
KHA3 230949Z 05010KT 15/15 A2997 RMK A01 T01520148  RH  098%=      5-min Rain = 0
KHA3 230950Z 06011KT 15/15 A2997 RMK A01 T01520148  RH  098%=      5-min Rain = 0
KHA3 230951Z 06012KT 15/15 A2997 RMK A01 T01520148  RH  098%=      5-min Rain = 0
KHA3 230952Z 06013KT 15/15 A2997 RMK A01 T01510148  RH  098%=      5-min Rain = 0
KHA3 230953Z 06012KT 15/15 A2997 RMK A01 T01510148  RH  098%=      5-min Rain = 0
KHA3 230954Z 06012KT 15/15 A2997 RMK A01 T01510148  RH  098%=      5-min Rain = 0
KHA3 230955Z 06013KT 15/15 A2997 RMK A01 T01520148  RH  098%=      5-min Rain = 0
KHA3 230956Z 06012KT 15/15 A2997 RMK A01 T01520148  RH  098%=      5-min Rain = 0
KHA3 230957Z 06013KT 15/15 A2997 RMK A01 T01520148  RH  098%=      5-min Rain = 0
KHA3 230958Z 06013KT 15/15 A2997 RMK A01 T01520148  RH  098%=      5-min Rain = 0
KHA3 230959Z 06012KT 15/15 A2997 RMK A01 T01520148  RH  098%=      5-min Rain = 0
KHA3 231000Z 06013KT 15/15 A2997 RMK A01 T01520148  RH  098%=      5-min Rain = 0
KHA3 231001Z 06012KT 15/15 A2997 RMK A01 T01520148  RH  098%=      5-min Rain = 0
KHA3 231002Z 07013KT 15/15 A2997 RMK A01 T01520148  RH  097%=      5-min Rain = 0
KHA3 231003Z 06011KT 15/15 A2997 RMK A01 T01520147  RH  097%=      5-min Rain = 0
KHA3 231004Z 06010KT 15/15 A2997 RMK A01 T01510147  RH  097%=      5-min Rain = 0
KHA3 231005Z 06012KT 15/15 A2997 RMK A01 T01520148  RH  097%=      5-min Rain = 0
KHA3 231006Z 06012KT 15/15 A2997 RMK A01 T01520148  RH  097%=      5-min Rain = 0
KHA3 231007Z 07013KT 15/15 A2997 RMK A01 T01520148  RH  097%=      5-min Rain = 0
KHA3 231008Z 06011KT 15/15 A2997 RMK A01 T01520148  RH  097%=      5-min Rain = 0
KHA3 231009Z 06011KT 15/15 A2997 RMK A01 T01520148  RH  097%=      5-min Rain = 0
KHA3 231010Z 06012KT 15/15 A2997 RMK A01 T01520148  RH  097%=      5-min Rain = 0
KHA3 231011Z 06011KT 15/15 A2997 RMK A01 T01520148  RH  097%=      5-min Rain = 0
KHA3 231012Z 06012KT 15/15 A2997 RMK A01 T01520148  RH  097%=      5-min Rain = 0
KHA3 231013Z 06011KT 15/15 A2997 RMK A01 T01510148  RH  097%=      5-min Rain = 0
KHA3 231014Z 06012KT 15/15 A2997 RMK A01 T01510147  RH  097%=      5-min Rain = 0
KHA3 231015Z 06010KT 15/15 A2997 RMK A01 T01520148  RH  097%=      5-min Rain = 0
KHA3 231016Z 06010KT 15/15 A2997 RMK A01 T01520148  RH  098%=      5-min Rain = 0
KHA3 231017Z 07009KT 15/15 A2997 RMK A01 T01520148  RH  098%=      5-min Rain = 0
KHA3 231018Z 06009KT 15/15 A2997 RMK A01 T01510148  RH  098%=      5-min Rain = 0
KHA3 231019Z 07010KT 15/15 A2997 RMK A01 T01510148  RH  098%=      5-min Rain = 0
KHA3 231020Z 06010KT 15/15 A2997 RMK A01 T01520148  RH  098%=      5-min Rain = 0
KHA3 231021Z 06010KT 15/15 A2997 RMK A01 T01510148  RH  098%=      5-min Rain = 0
KHA3 231022Z 07011KT 15/15 A2997 RMK A01 T01510148  RH  098%=      5-min Rain = 0.01
KHA3 231023Z 06012KT 15/15 A2997 RMK A01 T01510148  RH  098%=      5-min Rain = 0
KHA3 231024Z 06010KT 15/15 A2997 RMK A01 T01510148  RH  098%=      5-min Rain = 0
KHA3 231025Z 06008KT 15/15 A2997 RMK A01 T01510147  RH  098%=      5-min Rain = 0
KHA3 231026Z 06010KT 15/15 A2997 RMK A01 T01510147  RH  098%=      5-min Rain = 0
KHA3 231027Z 06010KT 15/15 A2997 RMK A01 T01510147  RH  098%=      5-min Rain = 0
KHA3 231028Z 05009KT 15/15 A2997 RMK A01 T01510147  RH  098%=      5-min Rain = 0
KHA3 231029Z 06008KT 15/15 A2997 RMK A01 T01510147  RH  098%=      5-min Rain = 0
KHA3 231030Z 06008KT 15/15 A2998 RMK A01 T01510148  RH  098%=      5-min Rain = 0
KHA3 231031Z 06008KT 15/15 A2998 RMK A01 T01510147  RH  098%=      5-min Rain = 0.01
KHA3 231032Z 06009KT 15/15 A2998 RMK A01 T01510148  RH  098%=      5-min Rain = 0
KHA3 231033Z 05008KT 15/15 A2998 RMK A01 T01510147  RH  098%=      5-min Rain = 0
KHA3 231034Z 05007KT 15/15 A2998 RMK A01 T01510147  RH  098%=      5-min Rain = 0
KHA3 231035Z 05009KT 15/15 A2998 RMK A01 T01510148  RH  098%=      5-min Rain = 0
KHA3 231036Z 06010KT 15/15 A2998 RMK A01 T01510148  RH  098%=      5-min Rain = 0
KHA3 231037Z 05009KT 15/15 A2998 RMK A01 T01510147  RH  098%=      5-min Rain = 0
KHA3 231038Z 04006KT 15/15 A2998 RMK A01 T01510147  RH  097%=      5-min Rain = 0
KHA3 231039Z 05006KT 15/15 A2998 RMK A01 T01510147  RH  097%=      5-min Rain = 0
KHA3 231040Z 05008KT 15/15 A2998 RMK A01 T01510147  RH  097%=      5-min Rain = 0
KHA3 231041Z 05008KT 15/15 A2998 RMK A01 T01510147  RH  097%=      5-min Rain = 0
KHA3 231042Z 05007KT 15/15 A2998 RMK A01 T01510147  RH  097%=      5-min Rain = 0
KHA3 231043Z 05008KT 15/15 A2998 RMK A01 T01510147  RH  097%=      5-min Rain = 0
KHA3 231044Z 05006KT 15/15 A2998 RMK A01 T01510147  RH  097%=      5-min Rain = 0
KHA3 231045Z 06006KT 15/15 A2998 RMK A01 T01510147  RH  097%=      5-min Rain = 0
KHA3 231046Z 06006KT 15/15 A2998 RMK A01 T01510147  RH  097%=      5-min Rain = 0
KHA3 231047Z 06008KT 15/15 A2998 RMK A01 T01510147  RH  097%=      5-min Rain = 0
KHA3 231048Z 06008KT 15/15 A2998 RMK A01 T01510147  RH  097%=      5-min Rain = 0.01
KHA3 231049Z 05008KT 15/15 A2998 RMK A01 T01510146  RH  097%=      5-min Rain = 0
KHA3 231050Z 06009KT 15/15 A2998 RMK A01 T01510147  RH  097%=      5-min Rain = 0
KHA3 231051Z 06008KT 15/15 A2998 RMK A01 T01510147  RH  097%=      5-min Rain = 0
KHA3 231052Z 06007KT 15/15 A2998 RMK A01 T01510147  RH  098%=      5-min Rain = 0
KHA3 231053Z 06008KT 15/15 A2998 RMK A01 T01510147  RH  098%=      5-min Rain = 0.01
KHA3 231054Z 06008KT 15/15 A2998 RMK A01 T01510147  RH  098%=      5-min Rain = 0
KHA3 231055Z 06007KT 15/15 A2998 RMK A01 T01510147  RH  098%=      5-min Rain = 0
KHA3 231056Z 05008KT 15/15 A2998 RMK A01 T01510147  RH  098%=      5-min Rain = 0
KHA3 231057Z 06008KT 15/15 A2998 RMK A01 T01500147  RH  098%=      5-min Rain = 0
KHA3 231058Z 06006KT 15/15 A2998 RMK A01 T01500147  RH  098%=      5-min Rain = 0
KHA3 231059Z 06006KT 15/15 A2998 RMK A01 T01500147  RH  098%=      5-min Rain = 0
KHA3 231100Z 06006KT 15/15 A2998 RMK A01 T01500147  RH  098%=      5-min Rain = 0
KHA3 231101Z 05006KT 15/15 A2999 RMK A01 T01500147  RH  098%=      5-min Rain = 0.01
KHA3 231102Z 06005KT 15/15 A2999 RMK A01 T01500147  RH  098%=      5-min Rain = 0
KHA3 231103Z 05006KT 15/15 A2999 RMK A01 T01500147  RH  098%=      5-min Rain = 0
KHA3 231104Z 06005KT 15/15 A2999 RMK A01 T01500147  RH  098%=      5-min Rain = 0
KHA3 231105Z 05006KT 15/15 A2999 RMK A01 T01500147  RH  098%=      5-min Rain = 0
KHA3 231106Z 06005KT 15/15 A2999 RMK A01 T01500147  RH  098%=      5-min Rain = 0
KHA3 231107Z 05004KT 15/15 A2999 RMK A01 T01500147  RH  098%=      5-min Rain = 0
KHA3 231108Z 04005KT 15/15 A2999 RMK A01 T01500147  RH  098%=      5-min Rain = 0
KHA3 231109Z 05006KT 15/15 A2999 RMK A01 T01500147  RH  098%=      5-min Rain = 0
KHA3 231110Z 05007KT 15/15 A2999 RMK A01 T01500147  RH  098%=      5-min Rain = 0
KHA3 231111Z 05006KT 15/15 A2999 RMK A01 T01500147  RH  098%=      5-min Rain = 0
KHA3 231112Z 06008KT 15/15 A2999 RMK A01 T01500147  RH  098%=      5-min Rain = 0
KHA3 231113Z 06008KT 15/15 A2998 RMK A01 T01500147  RH  098%=      5-min Rain = 0
KHA3 231114Z 05007KT 15/15 A2998 RMK A01 T01500147  RH  098%=      5-min Rain = 0
KHA3 231115Z 05007KT 15/15 A2998 RMK A01 T01500147  RH  098%=      5-min Rain = 0
KHA3 231116Z 05007KT 15/15 A2998 RMK A01 T01500147  RH  098%=      5-min Rain = 0
KHA3 231117Z 04008KT 15/15 A2998 RMK A01 T01500147  RH  098%=      5-min Rain = 0
KHA3 231118Z 05009KT 15/15 A2998 RMK A01 T01500147  RH  098%=      5-min Rain = 0
KHA3 231119Z 04009KT 15/15 A2998 RMK A01 T01500147  RH  098%=      5-min Rain = 0
KHA3 231120Z 04007KT 15/15 A2999 RMK A01 T01500147  RH  098%=      5-min Rain = 0
KHA3 231121Z 04008KT 15/15 A2999 RMK A01 T01500147  RH  098%=      5-min Rain = 0
KHA3 231122Z 04008KT 15/15 A2999 RMK A01 T01500146  RH  098%=      5-min Rain = 0
KHA3 231123Z 05007KT 15/15 A2999 RMK A01 T01500146  RH  098%=      5-min Rain = 0
KHA3 231124Z 04008KT 15/15 A2999 RMK A01 T01500146  RH  098%=      5-min Rain = 0
KHA3 231125Z 05007KT 15/15 A2999 RMK A01 T01500146  RH  098%=      5-min Rain = 0
KHA3 231126Z 05005KT 15/15 A2999 RMK A01 T01500146  RH  098%=      5-min Rain = 0
KHA3 231127Z 04006KT 15/15 A2999 RMK A01 T01500147  RH  098%=      5-min Rain = 0.01
KHA3 231128Z 05006KT 15/15 A2999 RMK A01 T01500147  RH  098%=      5-min Rain = 0
KHA3 231129Z 05007KT 15/15 A30 RMK A01 T01500147  RH  098%=      5-min Rain = 0.01
KHA3 231130Z 05008KT 15/15 A30 RMK A01 T01500146  RH  098%=      5-min Rain = 0.01
KHA3 231131Z 05007KT 15/15 A30 RMK A01 T01500146  RH  098%=      5-min Rain = 0.01
KHA3 231132Z 04007KT 15/15 A30 RMK A01 T01500146  RH  098%=      5-min Rain = 0
KHA3 231133Z 05008KT 15/15 A30 RMK A01 T01500146  RH  098%=      5-min Rain = 0.01
KHA3 231134Z 04006KT 15/15 A30 RMK A01 T01500146  RH  098%=      5-min Rain = 0
KHA3 231135Z 04008KT 15/15 A30 RMK A01 T01500146  RH  098%=      5-min Rain = 0
KHA3 231136Z 04008KT 15/15 A30 RMK A01 T01500146  RH  098%=      5-min Rain = 0
KHA3 231137Z 05008KT 15/15 A30 RMK A01 T01500146  RH  098%=      5-min Rain = 0
KHA3 231138Z 04008KT 15/15 A30 RMK A01 T01490146  RH  098%=      5-min Rain = 0
KHA3 231139Z 04008KT 15/15 A30 RMK A01 T01500146  RH  098%=      5-min Rain = 0
KHA3 231140Z 04008KT 15/15 A30 RMK A01 T01490146  RH  098%=      5-min Rain = 0.01
KHA3 231141Z 04009KT 15/15 A30 RMK A01 T01490146  RH  098%=      5-min Rain = 0
KHA3 231142Z 05009KT 15/15 A30 RMK A01 T01490146  RH  098%=      5-min Rain = 0
KHA3 231143Z 05009KT 15/15 A30 RMK A01 T01490146  RH  098%=      5-min Rain = 0
KHA3 231144Z 03007KT 15/15 A30 RMK A01 T01490146  RH  098%=      5-min Rain = 0
KHA3 231145Z 03008KT 15/15 A30 RMK A01 T01490146  RH  098%=      5-min Rain = 0
KHA3 231146Z 02010KT 15/15 A3001 RMK A01 T01490146  RH  098%=      5-min Rain = 0
KHA3 231147Z 02010KT 15/15 A3001 RMK A01 T01490146  RH  098%=      5-min Rain = 0
KHA3 231148Z 02010KT 15/15 A3001 RMK A01 T01490146  RH  098%=      5-min Rain = 0
KHA3 231149Z 01009KT 15/15 A3001 RMK A01 T01490146  RH  098%=      5-min Rain = 0
KHA3 231150Z 01011KT 15/15 A3001 RMK A01 T01490146  RH  098%=      5-min Rain = 0
KHA3 231151Z 36011KT 15/15 A3001 RMK A01 T01490146  RH  098%=      5-min Rain = 0
KHA3 231152Z 35012KT 15/15 A3002 RMK A01 T01490146  RH  098%=      5-min Rain = 0
KHA3 231153Z 35012KT 15/15 A3002 RMK A01 T01490147  RH  098%=      5-min Rain = 0.01
KHA3 231154Z 34013KT 15/15 A3003 RMK A01 T01490146  RH  098%=      5-min Rain = 0
KHA3 231155Z 33013KT 15/15 A3003 RMK A01 T01490147  RH  098%=      5-min Rain = 0
KHA3 231156Z 32013KT 15/15 A3004 RMK A01 T01490147  RH  098%=      5-min Rain = 0
KHA3 231157Z 32012KT 15/15 A3004 RMK A01 T01500147  RH  098%=      5-min Rain = 0
KHA3 231158Z 31011KT 15/15 A3005 RMK A01 T01500147  RH  098%=      5-min Rain = 0.02
KHA3 231159Z 31010KT 15/15 A3005 RMK A01 T01500147  RH  098%=      5-min Rain = 0.02
KHA3 231200Z 36006KT 15/15 A3005 RMK A01 T01500147  RH  098%=      5-min Rain = 0.03
KHA3 231201Z 05007KT 15/15 A3004 RMK A01 T01490147  RH  098%=      5-min Rain = 0.02
KHA3 231202Z 04010KT 15/15 A3003 RMK A01 T01490146  RH  098%=      5-min Rain = 0.01
KHA3 231203Z 05014KT 15/15 A3002 RMK A01 T01490146  RH  098%=      5-min Rain = 0.05
KHA3 231204Z 06018KT 15/15 A3001 RMK A01 T01480145  RH  098%=      5-min Rain = 0.07
KHA3 231205Z 06019KT 15/14 A30 RMK A01 T01470144  RH  098%=      5-min Rain = 0.05
KHA3 231206Z 06019KT 15/14 A2999 RMK A01 T01470144  RH  098%=      5-min Rain = 0.02
KHA3 231207Z 05020KT 15/14 A2999 RMK A01 T01460144  RH  098%=      5-min Rain = 0.01
KHA3 231208Z 06016KT 15/14 A30 RMK A01 T01460143  RH  098%=      5-min Rain = 0
KHA3 231209Z 06011KT 15/14 A30 RMK A01 T01460144  RH  098%=      5-min Rain = 0.01
KHA3 231210Z 05009KT 15/14 A3001 RMK A01 T01460144  RH  098%=      5-min Rain = 0.01
KHA3 231211Z 06008KT 15/14 A3001 RMK A01 T01460143  RH  098%=      5-min Rain = 0.01
KHA3 231212Z 05008KT 15/14 A3001 RMK A01 T01450143  RH  098%=      5-min Rain = 0.01
KHA3 231213Z 02007KT 15/14 A3001 RMK A01 T01450143  RH  098%=      5-min Rain = 0.01
KHA3 231214Z 34009KT 15/14 A3002 RMK A01 T01450143  RH  098%=      5-min Rain = 0
KHA3 231215Z 34010G15KT 15/14 A3002 RMK A01 T01450143  RH  098%=      5-min Rain = 0
KHA3 231216Z 34009KT 15/14 A3002 RMK A01 T01450143  RH  099%=      5-min Rain = 0
KHA3 231217Z 35010KT 15/14 A3002 RMK A01 T01450143  RH  099%=      5-min Rain = 0.01
KHA3 231218Z 34008KT 15/14 A3002 RMK A01 T01460143  RH  099%=      5-min Rain = 0
KHA3 231219Z 00007KT 15/14 A3002 RMK A01 T01460144  RH  099%=      5-min Rain = 0.01
KHA3 231220Z 04006KT 15/14 A3002 RMK A01 T01450143  RH  099%=      5-min Rain = 0.01
KHA3 231221Z 07009KT 15/14 A3002 RMK A01 T01450143  RH  099%=      5-min Rain = 0.01
KHA3 231222Z 07007KT 15/14 A3002 RMK A01 T01450142  RH  098%=      5-min Rain = 0
KHA3 231223Z 08007KT 15/14 A3002 RMK A01 T01450142  RH  098%=      5-min Rain = 0.01
KHA3 231224Z 07004KT 15/14 A3001 RMK A01 T01450142  RH  098%=      5-min Rain = 0.01
KHA3 231225Z 05004KT 15/14 A3001 RMK A01 T01450142  RH  098%=      5-min Rain = 0.01
KHA3 231226Z 05003KT 14/14 A3001 RMK A01 T01440141  RH  098%=      5-min Rain = 0.02
KHA3 231227Z 04005KT 15/14 A30 RMK A01 T01450141  RH  098%=      5-min Rain = 0.01
KHA3 231228Z 05006KT 15/14 A30 RMK A01 T01450141  RH  097%=      5-min Rain = 0.01
KHA3 231229Z 05005KT 15/14 A30 RMK A01 T01450141  RH  097%=      5-min Rain = 0.01
KHA3 231230Z 05005KT 15/14 A3001 RMK A01 T01450141  RH  097%=      5-min Rain = 0
KHA3 231231Z 05004KT 15/14 A3001 RMK A01 T01450141  RH  097%=      5-min Rain = 0
KHA3 231232Z 05004KT 15/14 A3001 RMK A01 T01450140  RH  097%=      5-min Rain = 0
KHA3 231233Z 06004KT 15/14 A3001 RMK A01 T01450140  RH  097%=      5-min Rain = 0
KHA3 231234Z 03004KT 15/14 A3001 RMK A01 T01450140  RH  097%=      5-min Rain = 0
KHA3 231235Z 05005KT 15/14 A3001 RMK A01 T01450140  RH  097%=      5-min Rain = 0
KHA3 231236Z 06006KT 15/14 A3001 RMK A01 T01450140  RH  097%=      5-min Rain = 0
KHA3 231237Z 07007KT 15/14 A3001 RMK A01 T01450139  RH  097%=      5-min Rain = 0
KHA3 231238Z 07007KT 15/14 A3001 RMK A01 T01450139  RH  096%=      5-min Rain = 0
KHA3 231239Z 06007KT 15/14 A3001 RMK A01 T01450139  RH  096%=      5-min Rain = 0
KHA3 231240Z 06007KT 15/14 A3001 RMK A01 T01450138  RH  096%=      5-min Rain = 0
KHA3 231241Z 07007KT 15/14 A3001 RMK A01 T01450137  RH  095%=      5-min Rain = 0
KHA3 231242Z 07007KT 15/14 A3001 RMK A01 T01460137  RH  095%=      5-min Rain = 0
KHA3 231243Z 07006KT 15/14 A3001 RMK A01 T01460137  RH  095%=      5-min Rain = 0
KHA3 231244Z 06005KT 15/14 A3001 RMK A01 T01460138  RH  095%=      5-min Rain = 0
KHA3 231245Z 07006KT 15/14 A3001 RMK A01 T01460137  RH  095%=      5-min Rain = 0
KHA3 231246Z 07005KT 15/14 A3001 RMK A01 T01460138  RH  095%=      5-min Rain = 0
KHA3 231247Z 08005KT 15/14 A3001 RMK A01 T01460138  RH  095%=      5-min Rain = 0
KHA3 231248Z 07004KT 15/14 A3001 RMK A01 T01450138  RH  095%=      5-min Rain = 0
KHA3 231249Z 07005KT 15/14 A3002 RMK A01 T01450137  RH  095%=      5-min Rain = 0
KHA3 231250Z 07006KT 14/14 A3002 RMK A01 T01440137  RH  095%=      5-min Rain = 0
KHA3 231251Z 08006KT 14/14 A3002 RMK A01 T01440137  RH  096%=      5-min Rain = 0
KHA3 231252Z 07006KT 14/14 A3002 RMK A01 T01430137  RH  096%=      5-min Rain = 0
KHA3 231253Z 08006KT 14/14 A3002 RMK A01 T01430137  RH  096%=      5-min Rain = 0
KHA3 231254Z 07006KT 14/14 A3002 RMK A01 T01430138  RH  097%=      5-min Rain = 0
KHA3 231255Z 07006KT 14/14 A3002 RMK A01 T01430138  RH  097%=      5-min Rain = 0
KHA3 231256Z 07007KT 14/14 A3001 RMK A01 T01430138  RH  097%=      5-min Rain = 0
KHA3 231257Z 07007KT 14/14 A3001 RMK A01 T01430138  RH  097%=      5-min Rain = 0
KHA3 231258Z 07006KT 14/14 A3001 RMK A01 T01430138  RH  097%=      5-min Rain = 0
KHA3 231259Z 07007KT 14/14 A3001 RMK A01 T01430138  RH  097%=      5-min Rain = 0
KHA3 231300Z 06008KT 14/14 A3001 RMK A01 T01430138  RH  097%=      5-min Rain = 0
KHA3 231301Z 07009KT 14/14 A3001 RMK A01 T01430139  RH  097%=      5-min Rain = 0
KHA3 231302Z 07010KT 14/14 A3001 RMK A01 T01440139  RH  097%=      5-min Rain = 0
KHA3 231303Z 07010KT 14/14 A3001 RMK A01 T01440139  RH  097%=      5-min Rain = 0
KHA3 231304Z 07009KT 14/14 A3001 RMK A01 T01440139  RH  097%=      5-min Rain = 0
KHA3 231305Z 07009KT 15/14 A3002 RMK A01 T01450139  RH  097%=      5-min Rain = 0
KHA3 231306Z 07009KT 15/14 A3002 RMK A01 T01450140  RH  097%=      5-min Rain = 0
KHA3 231307Z 07009KT 15/14 A3002 RMK A01 T01450141  RH  097%=      5-min Rain = 0
KHA3 231308Z 07011KT 15/14 A3002 RMK A01 T01450140  RH  097%=      5-min Rain = 0
KHA3 231309Z 07010KT 15/14 A3002 RMK A01 T01450141  RH  097%=      5-min Rain = 0
KHA3 231310Z 07010KT 15/14 A3002 RMK A01 T01450140  RH  097%=      5-min Rain = 0
KHA3 231311Z 07009KT 15/14 A3002 RMK A01 T01450141  RH  097%=      5-min Rain = 0
KHA3 231312Z 07010KT 15/14 A3002 RMK A01 T01460141  RH  097%=      5-min Rain = 0
KHA3 231313Z 07012KT 15/14 A3002 RMK A01 T01460141  RH  097%=      5-min Rain = 0
KHA3 231314Z 07010KT 15/14 A3002 RMK A01 T01460141  RH  097%=      5-min Rain = 0
KHA3 231315Z 07009KT 15/14 A3002 RMK A01 T01450141  RH  097%=      5-min Rain = 0
KHA3 231316Z 07010KT 15/14 A3002 RMK A01 T01460141  RH  097%=      5-min Rain = 0
KHA3 231317Z 08009KT 15/14 A3002 RMK A01 T01460142  RH  097%=      5-min Rain = 0
KHA3 231318Z 08008KT 15/14 A3002 RMK A01 T01460142  RH  097%=      5-min Rain = 0
KHA3 231319Z 08009KT 15/14 A3003 RMK A01 T01460142  RH  097%=      5-min Rain = 0
KHA3 231320Z 08008KT 15/14 A3003 RMK A01 T01470143  RH  097%=      5-min Rain = 0
KHA3 231321Z 08008KT 15/14 A3003 RMK A01 T01480144  RH  097%=      5-min Rain = 0
KHA3 231322Z 08007KT 15/15 A3002 RMK A01 T01490145  RH  097%=      5-min Rain = 0
KHA3 231323Z 08007KT 15/15 A3002 RMK A01 T01490145  RH  097%=      5-min Rain = 0
KHA3 231324Z 08008KT 15/15 A3002 RMK A01 T01510146  RH  097%=      5-min Rain = 0
KHA3 231325Z 08008KT 15/15 A3003 RMK A01 T01510147  RH  097%=      5-min Rain = 0
KHA3 231326Z 08007KT 15/15 A3003 RMK A01 T01520147  RH  097%=      5-min Rain = 0
KHA3 231327Z 08008KT 15/15 A3003 RMK A01 T01520147  RH  097%=      5-min Rain = 0
KHA3 231328Z 07008KT 15/15 A3003 RMK A01 T01530147  RH  096%=      5-min Rain = 0
KHA3 231329Z 08009KT 15/15 A3003 RMK A01 T01530147  RH  096%=      5-min Rain = 0
KHA3 231330Z 07007KT 15/15 A3003 RMK A01 T01530146  RH  096%=      5-min Rain = 0
KHA3 231331Z 08007KT 15/15 A3003 RMK A01 T01540148  RH  096%=      5-min Rain = 0
KHA3 231332Z 07006KT 15/15 A3003 RMK A01 T01540148  RH  096%=      5-min Rain = 0
KHA3 231333Z 08006KT 15/15 A3003 RMK A01 T01540147  RH  096%=      5-min Rain = 0
KHA3 231334Z 08007KT 15/15 A3003 RMK A01 T01540147  RH  096%=      5-min Rain = 0
KHA3 231335Z 09008KT 15/15 A3003 RMK A01 T01540147  RH  096%=      5-min Rain = 0
KHA3 231336Z 09007KT 15/15 A3003 RMK A01 T01540147  RH  096%=      5-min Rain = 0
KHA3 231337Z 09008KT 15/15 A3003 RMK A01 T01530147  RH  096%=      5-min Rain = 0
KHA3 231338Z 09009KT 15/15 A3003 RMK A01 T01530147  RH  096%=      5-min Rain = 0
KHA3 231339Z 09009KT 15/15 A3003 RMK A01 T01530146  RH  096%=      5-min Rain = 0
KHA3 231340Z 09009KT 15/15 A3003 RMK A01 T01530146  RH  096%=      5-min Rain = 0
KHA3 231341Z 09009KT 15/15 A3003 RMK A01 T01520146  RH  096%=      5-min Rain = 0
KHA3 231342Z 09008KT 15/15 A3003 RMK A01 T01520146  RH  096%=      5-min Rain = 0
KHA3 231343Z 09007KT 15/15 A3003 RMK A01 T01520146  RH  096%=      5-min Rain = 0
KHA3 231344Z 08008KT 15/15 A3003 RMK A01 T01520146  RH  096%=      5-min Rain = 0
KHA3 231345Z 09009KT 15/15 A3003 RMK A01 T01520146  RH  096%=      5-min Rain = 0
KHA3 231346Z 08008KT 15/15 A3003 RMK A01 T01520145  RH  096%=      5-min Rain = 0
KHA3 231347Z 08008KT 15/15 A3003 RMK A01 T01520145  RH  096%=      5-min Rain = 0
KHA3 231348Z 09009KT 15/15 A3003 RMK A01 T01520146  RH  096%=      5-min Rain = 0
KHA3 231349Z 08010KT 15/15 A3003 RMK A01 T01520146  RH  096%=      5-min Rain = 0
KHA3 231350Z 08011KT 15/15 A3003 RMK A01 T01520145  RH  096%=      5-min Rain = 0
KHA3 231351Z 09012KT 15/15 A3003 RMK A01 T01520145  RH  096%=      5-min Rain = 0
KHA3 231352Z 09009KT 15/14 A3004 RMK A01 T01510144  RH  096%=      5-min Rain = 0
KHA3 231353Z 08008KT 15/14 A3004 RMK A01 T01510144  RH  096%=      5-min Rain = 0
KHA3 231354Z 08009KT 15/15 A3004 RMK A01 T01510145  RH  096%=      5-min Rain = 0
KHA3 231355Z 08008KT 15/15 A3004 RMK A01 T01520145  RH  096%=      5-min Rain = 0
KHA3 231356Z 08008KT 15/15 A3004 RMK A01 T01520145  RH  096%=      5-min Rain = 0
KHA3 231357Z 08008KT 15/15 A3004 RMK A01 T01520145  RH  096%=      5-min Rain = 0
KHA3 231358Z 08006KT 15/15 A3004 RMK A01 T01530146  RH  096%=      5-min Rain = 0
KHA3 231359Z 08008KT 15/15 A3004 RMK A01 T01540147  RH  096%=      5-min Rain = 0
KHA3 231400Z 09008KT 16/15 A3004 RMK A01 T01550149  RH  096%=      5-min Rain = 0
KHA3 231401Z 09009KT 16/15 A3004 RMK A01 T01560147  RH  095%=      5-min Rain = 0
KHA3 231402Z 09008KT 16/15 A3004 RMK A01 T01560148  RH  095%=      5-min Rain = 0
KHA3 231403Z 08007KT 16/15 A3004 RMK A01 T01580150  RH  095%=      5-min Rain = 0
KHA3 231404Z 08006KT 16/15 A3004 RMK A01 T01590151  RH  095%=      5-min Rain = 0
KHA3 231405Z 09007KT 16/15 A3004 RMK A01 T01610152  RH  095%=      5-min Rain = 0
KHA3 231406Z 08007KT 16/15 A3004 RMK A01 T01620152  RH  093%=      5-min Rain = 0
KHA3 231407Z 08008KT 16/15 A3004 RMK A01 T01620151  RH  093%=      5-min Rain = 0
KHA3 231408Z 08009KT 16/15 A3004 RMK A01 T01610150  RH  093%=      5-min Rain = 0
KHA3 231409Z 08009KT 16/15 A3004 RMK A01 T01610148  RH  092%=      5-min Rain = 0
KHA3 231410Z 09009KT 16/15 A3005 RMK A01 T01590147  RH  092%=      5-min Rain = 0
KHA3 231411Z 09008KT 16/15 A3005 RMK A01 T01590146  RH  092%=      5-min Rain = 0
KHA3 231412Z 09008KT 16/15 A3005 RMK A01 T01590149  RH  094%=      5-min Rain = 0
KHA3 231413Z 08008KT 16/15 A3005 RMK A01 T01590149  RH  094%=      5-min Rain = 0
KHA3 231414Z 08008KT 16/15 A3005 RMK A01 T01600149  RH  093%=      5-min Rain = 0
KHA3 231415Z 08008KT 16/15 A3005 RMK A01 T01600148  RH  093%=      5-min Rain = 0
KHA3 231416Z 08009KT 16/15 A3005 RMK A01 T01600149  RH  093%=      5-min Rain = 0
KHA3 231417Z 08010KT 16/15 A3005 RMK A01 T01590147  RH  092%=      5-min Rain = 0
KHA3 231418Z 07009KT 16/15 A3005 RMK A01 T01590146  RH  092%=      5-min Rain = 0
KHA3 231419Z 07008KT 16/15 A3005 RMK A01 T01590146  RH  092%=      5-min Rain = 0
KHA3 231420Z 08008KT 16/15 A3005 RMK A01 T01600148  RH  092%=      5-min Rain = 0
KHA3 231421Z 09009KT 16/15 A3005 RMK A01 T01600148  RH  092%=      5-min Rain = 0
KHA3 231422Z 08009KT 16/15 A3005 RMK A01 T01610148  RH  092%=      5-min Rain = 0
KHA3 231423Z 08008KT 16/15 A3005 RMK A01 T01620149  RH  092%=      5-min Rain = 0
KHA3 231424Z 07009KT 16/15 A3005 RMK A01 T01620147  RH  090%=      5-min Rain = 0
KHA3 231425Z 08009KT 16/15 A3005 RMK A01 T01620149  RH  092%=      5-min Rain = 0
KHA3 231426Z 07008KT 16/15 A3005 RMK A01 T01630149  RH  091%=      5-min Rain = 0
KHA3 231427Z 07008KT 16/15 A3005 RMK A01 T01620147  RH  091%=      5-min Rain = 0
KHA3 231428Z 09006KT 16/15 A3005 RMK A01 T01610145  RH  090%=      5-min Rain = 0
KHA3 231429Z 09006KT 16/15 A3006 RMK A01 T01610147  RH  091%=      5-min Rain = 0
KHA3 231430Z 09005KT 16/15 A3006 RMK A01 T01600148  RH  092%=      5-min Rain = 0
KHA3 231431Z 07007KT 16/15 A3006 RMK A01 T01600149  RH  093%=      5-min Rain = 0
KHA3 231432Z 06006KT 16/15 A3006 RMK A01 T01600146  RH  091%=      5-min Rain = 0
KHA3 231433Z 07006KT 16/15 A3006 RMK A01 T01600146  RH  091%=      5-min Rain = 0
KHA3 231434Z 07006KT 16/15 A3006 RMK A01 T01600146  RH  091%=      5-min Rain = 0
KHA3 231435Z 09005KT 16/15 A3006 RMK A01 T01610146  RH  091%=      5-min Rain = 0
KHA3 231436Z 07005KT 16/15 A3006 RMK A01 T01610146  RH  091%=      5-min Rain = 0
KHA3 231437Z 07005KT 16/15 A3006 RMK A01 T01620148  RH  091%=      5-min Rain = 0
KHA3 231438Z 07005KT 16/15 A3006 RMK A01 T01630150  RH  092%=      5-min Rain = 0
KHA3 231439Z 07005KT 16/15 A3006 RMK A01 T01630150  RH  092%=      5-min Rain = 0
KHA3 231440Z 07007KT 16/15 A3006 RMK A01 T01640149  RH  091%=      5-min Rain = 0
KHA3 231441Z 06007KT 16/15 A3006 RMK A01 T01630147  RH  090%=      5-min Rain = 0
KHA3 231442Z 05006KT 16/15 A3006 RMK A01 T01620145  RH  089%=      5-min Rain = 0
KHA3 231443Z 06005KT 16/15 A3006 RMK A01 T01620145  RH  090%=      5-min Rain = 0
KHA3 231444Z 07008KT 16/15 A3006 RMK A01 T01620148  RH  091%=      5-min Rain = 0
KHA3 231445Z 06008KT 16/15 A3006 RMK A01 T01630146  RH  090%=      5-min Rain = 0
KHA3 231446Z 07008KT 16/15 A3006 RMK A01 T01620146  RH  090%=      5-min Rain = 0
KHA3 231447Z 07008KT 16/14 A3006 RMK A01 T01620144  RH  089%=      5-min Rain = 0
KHA3 231448Z 07008KT 16/15 A3006 RMK A01 T01630146  RH  090%=      5-min Rain = 0
KHA3 231449Z 05007KT 16/15 A3006 RMK A01 T01640148  RH  090%=      5-min Rain = 0
KHA3 231450Z 05007KT 17/15 A3006 RMK A01 T01650146  RH  089%=      5-min Rain = 0
KHA3 231451Z 05007KT 17/15 A3006 RMK A01 T01660147  RH  088%=      5-min Rain = 0
KHA3 231452Z 06007KT 17/15 A3006 RMK A01 T01660145  RH  087%=      5-min Rain = 0
KHA3 231453Z 07007KT 17/15 A3005 RMK A01 T01660148  RH  089%=      5-min Rain = 0
KHA3 231454Z 06008KT 17/15 A3005 RMK A01 T01670147  RH  088%=      5-min Rain = 0
KHA3 231455Z 07008KT 17/15 A3005 RMK A01 T01670149  RH  089%=      5-min Rain = 0
KHA3 231456Z 05009KT 17/15 A3005 RMK A01 T01680149  RH  089%=      5-min Rain = 0
KHA3 231457Z 05008KT 17/15 A3005 RMK A01 T01680149  RH  089%=      5-min Rain = 0
KHA3 231458Z 06010KT 17/15 A3005 RMK A01 T01680149  RH  088%=      5-min Rain = 0
KHA3 231459Z 05009KT 17/15 A3005 RMK A01 T01670147  RH  088%=      5-min Rain = 0
KHA3 231500Z 05008KT 17/15 A3005 RMK A01 T01670150  RH  090%=      5-min Rain = 0
KHA3 231501Z 06010KT 17/15 A3005 RMK A01 T01670147  RH  088%=      5-min Rain = 0
KHA3 231502Z 06008KT 17/15 A3005 RMK A01 T01660147  RH  089%=      5-min Rain = 0
KHA3 231503Z 07009KT 17/15 A3005 RMK A01 T01650147  RH  089%=      5-min Rain = 0
KHA3 231504Z 07008KT 16/15 A3005 RMK A01 T01640146  RH  089%=      5-min Rain = 0
KHA3 231505Z 07007KT 16/15 A3005 RMK A01 T01640147  RH  090%=      5-min Rain = 0
KHA3 231506Z 08008KT 16/15 A3005 RMK A01 T01640146  RH  089%=      5-min Rain = 0
KHA3 231507Z 08010KT 16/15 A3005 RMK A01 T01640147  RH  090%=      5-min Rain = 0
KHA3 231508Z 08009KT 16/15 A3004 RMK A01 T01630146  RH  089%=      5-min Rain = 0
KHA3 231509Z 07008KT 16/15 A3004 RMK A01 T01630146  RH  090%=      5-min Rain = 0
KHA3 231510Z 06008KT 16/15 A3004 RMK A01 T01630149  RH  091%=      5-min Rain = 0
KHA3 231511Z 06007KT 16/15 A3004 RMK A01 T01640148  RH  090%=      5-min Rain = 0
KHA3 231512Z 07008KT 16/15 A3005 RMK A01 T01640148  RH  090%=      5-min Rain = 0
KHA3 231513Z 07006KT 16/15 A3005 RMK A01 T01640148  RH  090%=      5-min Rain = 0
KHA3 231514Z 07006KT 17/15 A3005 RMK A01 T01650150  RH  091%=      5-min Rain = 0
KHA3 231515Z 06007KT 17/15 A3006 RMK A01 T01650146  RH  088%=      5-min Rain = 0
KHA3 231516Z 06006KT 17/15 A3006 RMK A01 T01650145  RH  088%=      5-min Rain = 0
KHA3 231517Z 05005KT 17/15 A3007 RMK A01 T01650145  RH  088%=      5-min Rain = 0
KHA3 231518Z 06004KT 17/14 A3007 RMK A01 T01650142  RH  086%=      5-min Rain = 0
KHA3 231519Z 05003KT 17/14 A3008 RMK A01 T01650143  RH  087%=      5-min Rain = 0
KHA3 231520Z 06003KT 17/14 A3008 RMK A01 T01650141  RH  086%=      5-min Rain = 0
KHA3 231521Z 07004KT 17/14 A3008 RMK A01 T01650142  RH  086%=      5-min Rain = 0
KHA3 231522Z 06003KT 17/14 A3008 RMK A01 T01650142  RH  086%=      5-min Rain = 0
KHA3 231523Z 08004KT 16/14 A3008 RMK A01 T01640143  RH  087%=      5-min Rain = 0
KHA3 231524Z 09005KT 17/15 A3007 RMK A01 T01650145  RH  088%=      5-min Rain = 0
KHA3 231525Z 09006KT 17/15 A3007 RMK A01 T01650145  RH  088%=      5-min Rain = 0
KHA3 231526Z 08006KT 16/14 A3007 RMK A01 T01640144  RH  088%=      5-min Rain = 0
KHA3 231527Z 08006KT 17/15 A3007 RMK A01 T01650146  RH  089%=      5-min Rain = 0
KHA3 231528Z 07005KT 16/15 A3007 RMK A01 T01640145  RH  088%=      5-min Rain = 0
KHA3 231529Z 06005KT 16/15 A3007 RMK A01 T01640145  RH  089%=      5-min Rain = 0
KHA3 231530Z 06005KT 16/15 A3007 RMK A01 T01640145  RH  088%=      5-min Rain = 0
KHA3 231531Z 07004KT 16/15 A3007 RMK A01 T01640146  RH  089%=      5-min Rain = 0
KHA3 231532Z 08003KT 16/15 A3008 RMK A01 T01640145  RH  088%=      5-min Rain = 0
KHA3 231533Z 10002KT 16/14 A3008 RMK A01 T01640144  RH  088%=      5-min Rain = 0
KHA3 231534Z 11002KT 16/14 A3008 RMK A01 T01640143  RH  087%=      5-min Rain = 0
KHA3 231535Z 13002KT 16/14 A3008 RMK A01 T01640143  RH  088%=      5-min Rain = 0
KHA3 231536Z 12003KT 16/14 A3008 RMK A01 T01640143  RH  087%=      5-min Rain = 0
KHA3 231537Z 11004KT 16/14 A3008 RMK A01 T01640143  RH  087%=      5-min Rain = 0
KHA3 231538Z 11004KT 16/14 A3008 RMK A01 T01640143  RH  087%=      5-min Rain = 0
KHA3 231539Z 12004KT 16/14 A3008 RMK A01 T01640144  RH  088%=      5-min Rain = 0
KHA3 231540Z 11004KT 16/15 A3008 RMK A01 T01640147  RH  089%=      5-min Rain = 0
KHA3 231541Z 10004KT 16/15 A3008 RMK A01 T01640146  RH  089%=      5-min Rain = 0
KHA3 231542Z 12005KT 16/15 A3008 RMK A01 T01630145  RH  089%=      5-min Rain = 0
KHA3 231543Z 10003KT 16/15 A3008 RMK A01 T01630145  RH  089%=      5-min Rain = 0
KHA3 231544Z 11005KT 16/15 A3008 RMK A01 T01630147  RH  090%=      5-min Rain = 0
KHA3 231545Z 12005KT 16/15 A3008 RMK A01 T01620146  RH  090%=      5-min Rain = 0
KHA3 231546Z 11005KT 16/14 A3008 RMK A01 T01610144  RH  090%=      5-min Rain = 0
KHA3 231547Z 11005KT 16/15 A3008 RMK A01 T01610146  RH  091%=      5-min Rain = 0.01
KHA3 231548Z 10004KT 16/15 A3008 RMK A01 T01600146  RH  091%=      5-min Rain = 0
KHA3 231549Z 10004KT 16/15 A3008 RMK A01 T01600147  RH  092%=      5-min Rain = 0
KHA3 231550Z 09005KT 16/15 A3007 RMK A01 T01590147  RH  092%=      5-min Rain = 0
KHA3 231551Z 09004KT 16/15 A3007 RMK A01 T01590146  RH  092%=      5-min Rain = 0
KHA3 231552Z 08004KT 16/15 A3007 RMK A01 T01580146  RH  092%=      5-min Rain = 0
KHA3 231553Z 08004KT 16/15 A3007 RMK A01 T01580147  RH  093%=      5-min Rain = 0
KHA3 231554Z 09004KT 16/15 A3007 RMK A01 T01580147  RH  093%=      5-min Rain = 0
KHA3 231555Z 09003KT 16/15 A3008 RMK A01 T01580147  RH  093%=      5-min Rain = 0
KHA3 231556Z 09004KT 16/15 A3008 RMK A01 T01580147  RH  093%=      5-min Rain = 0
KHA3 231557Z 10004KT 16/15 A3008 RMK A01 T01580147  RH  093%=      5-min Rain = 0
KHA3 231558Z 10004KT 16/15 A3008 RMK A01 T01580147  RH  093%=      5-min Rain = 0
KHA3 231559Z 09003KT 16/15 A3008 RMK A01 T01580148  RH  093%=      5-min Rain = 0
KHA3 231600Z 09004KT 16/15 A3008 RMK A01 T01580147  RH  093%=      5-min Rain = 0
KHA3 231601Z 09005KT 16/15 A3008 RMK A01 T01580147  RH  093%=      5-min Rain = 0
KHA3 231602Z 09004KT 16/15 A3008 RMK A01 T01570146  RH  093%=      5-min Rain = 0
KHA3 231603Z 10004KT 16/15 A3008 RMK A01 T01570147  RH  094%=      5-min Rain = 0
KHA3 231604Z 10005KT 16/15 A3007 RMK A01 T01570147  RH  094%=      5-min Rain = 0
KHA3 231605Z 09005KT 16/15 A3007 RMK A01 T01570148  RH  095%=      5-min Rain = 0
KHA3 231606Z 09006KT 16/15 A3007 RMK A01 T01570149  RH  095%=      5-min Rain = 0.01
KHA3 231607Z 09006KT 16/15 A3007 RMK A01 T01570148  RH  094%=      5-min Rain = 0
KHA3 231608Z 09007KT 16/15 A3007 RMK A01 T01570148  RH  094%=      5-min Rain = 0
KHA3 231609Z 09006KT 16/15 A3007 RMK A01 T01570147  RH  094%=      5-min Rain = 0
KHA3 231610Z 09006KT 16/15 A3007 RMK A01 T01570147  RH  094%=      5-min Rain = 0
KHA3 231611Z 09005KT 16/15 A3007 RMK A01 T01570148  RH  094%=      5-min Rain = 0
KHA3 231612Z 10005KT 16/15 A3007 RMK A01 T01570148  RH  094%=      5-min Rain = 0
KHA3 231613Z 10005KT 16/15 A3007 RMK A01 T01570148  RH  094%=      5-min Rain = 0
KHA3 231614Z 10006KT 16/15 A3007 RMK A01 T01560147  RH  094%=      5-min Rain = 0
KHA3 231615Z 10007KT 16/15 A3007 RMK A01 T01560146  RH  094%=      5-min Rain = 0
KHA3 231616Z 10008KT 16/15 A3007 RMK A01 T01550146  RH  094%=      5-min Rain = 0
KHA3 231617Z 10007KT 16/15 A3007 RMK A01 T01560146  RH  094%=      5-min Rain = 0
KHA3 231618Z 10006KT 16/15 A3007 RMK A01 T01550146  RH  094%=      5-min Rain = 0
KHA3 231619Z 10006KT 16/15 A3007 RMK A01 T01550146  RH  094%=      5-min Rain = 0
KHA3 231620Z 09005KT 16/15 A3007 RMK A01 T01550146  RH  094%=      5-min Rain = 0
KHA3 231621Z 10005KT 16/15 A3007 RMK A01 T01550146  RH  095%=      5-min Rain = 0
KHA3 231622Z 10004KT 16/15 A3007 RMK A01 T01550146  RH  094%=      5-min Rain = 0
KHA3 231623Z 10004KT 16/15 A3008 RMK A01 T01550147  RH  094%=      5-min Rain = 0
KHA3 231624Z 10005KT 16/15 A3008 RMK A01 T01560146  RH  094%=      5-min Rain = 0
KHA3 231625Z 10006KT 16/15 A3008 RMK A01 T01560146  RH  094%=      5-min Rain = 0
KHA3 231626Z 10005KT 16/15 A3008 RMK A01 T01560145  RH  094%=      5-min Rain = 0
KHA3 231627Z 11005KT 16/15 A3008 RMK A01 T01560146  RH  094%=      5-min Rain = 0
KHA3 231628Z 12004KT 16/15 A3008 RMK A01 T01560147  RH  094%=      5-min Rain = 0
KHA3 231629Z 12005KT 16/15 A3008 RMK A01 T01570148  RH  095%=      5-min Rain = 0
KHA3 231630Z 13005KT 16/15 A3009 RMK A01 T01560148  RH  094%=      5-min Rain = 0
KHA3 231631Z 11005KT 16/15 A3009 RMK A01 T01560147  RH  094%=      5-min Rain = 0
KHA3 231632Z 12004KT 16/15 A3009 RMK A01 T01560148  RH  094%=      5-min Rain = 0
KHA3 231633Z 10004KT 16/15 A3009 RMK A01 T01570147  RH  094%=      5-min Rain = 0
KHA3 231634Z 11005KT 16/15 A3009 RMK A01 T01570148  RH  095%=      5-min Rain = 0
KHA3 231635Z 11005KT 16/15 A3009 RMK A01 T01570148  RH  094%=      5-min Rain = 0
KHA3 231636Z 10004KT 16/15 A3009 RMK A01 T01570148  RH  094%=      5-min Rain = 0
KHA3 231637Z 09005KT 16/15 A3009 RMK A01 T01570148  RH  094%=      5-min Rain = 0
KHA3 231638Z 08007KT 16/15 A3009 RMK A01 T01570149  RH  095%=      5-min Rain = 0
KHA3 231639Z 08009KT 16/15 A3008 RMK A01 T01570149  RH  095%=      5-min Rain = 0
KHA3 231640Z 09009KT 16/15 A3008 RMK A01 T01570149  RH  095%=      5-min Rain = 0
KHA3 231641Z 09009KT 16/15 A3008 RMK A01 T01580150  RH  095%=      5-min Rain = 0.01
KHA3 231642Z 08009KT 16/15 A3008 RMK A01 T01570150  RH  095%=      5-min Rain = 0
KHA3 231643Z 08008KT 16/15 A3007 RMK A01 T01570149  RH  095%=      5-min Rain = 0
KHA3 231644Z 08009KT 16/15 A3007 RMK A01 T01570149  RH  095%=      5-min Rain = 0
KHA3 231645Z 09008KT 16/15 A3007 RMK A01 T01570150  RH  095%=      5-min Rain = 0
KHA3 231646Z 09008KT 16/15 A3007 RMK A01 T01570150  RH  096%=      5-min Rain = 0
KHA3 231647Z 09010KT 16/15 A3007 RMK A01 T01570150  RH  095%=      5-min Rain = 0
KHA3 231648Z 09011KT 16/15 A3006 RMK A01 T01570149  RH  095%=      5-min Rain = 0
KHA3 231649Z 08011KT 16/15 A3006 RMK A01 T01560149  RH  095%=      5-min Rain = 0
KHA3 231650Z 07009KT 16/15 A3005 RMK A01 T01570149  RH  095%=      5-min Rain = 0
KHA3 231651Z 06011KT 16/15 A3005 RMK A01 T01560149  RH  096%=      5-min Rain = 0
KHA3 231652Z 04011KT 16/15 A3004 RMK A01 T01570150  RH  096%=      5-min Rain = 0
KHA3 231653Z 04013KT 16/15 A3003 RMK A01 T01570150  RH  096%=      5-min Rain = 0
KHA3 231654Z 03012KT 16/15 A3003 RMK A01 T01570151  RH  096%=      5-min Rain = 0
KHA3 231655Z 03013KT 16/15 A3003 RMK A01 T01570150  RH  096%=      5-min Rain = 0
KHA3 231656Z 02012KT 16/15 A3003 RMK A01 T01570150  RH  096%=      5-min Rain = 0
KHA3 231657Z 03012KT 16/15 A3003 RMK A01 T01570150  RH  096%=      5-min Rain = 0
KHA3 231658Z 02012KT 16/15 A3002 RMK A01 T01560150  RH  096%=      5-min Rain = 0
KHA3 231659Z 03012KT 16/15 A3002 RMK A01 T01560150  RH  096%=      5-min Rain = 0
KHA3 231700Z 03010KT 16/15 A3002 RMK A01 T01570151  RH  096%=      5-min Rain = 0
KHA3 231701Z 03013KT 16/15 A3002 RMK A01 T01570151  RH  096%=      5-min Rain = 0
KHA3 231702Z 03013KT 16/15 A3002 RMK A01 T01570150  RH  096%=      5-min Rain = 0
KHA3 231703Z 03011KT 16/15 A3002 RMK A01 T01570150  RH  096%=      5-min Rain = 0
KHA3 231704Z 03010KT 16/15 A3002 RMK A01 T01570151  RH  096%=      5-min Rain = 0
KHA3 231705Z 02011KT 16/15 A3002 RMK A01 T01570151  RH  096%=      5-min Rain = 0
KHA3 231706Z 02011KT 16/15 A3002 RMK A01 T01570151  RH  096%=      5-min Rain = 0
KHA3 231707Z 02011KT 16/15 A3001 RMK A01 T01570151  RH  096%=      5-min Rain = 0
KHA3 231708Z 02011KT 16/15 A3001 RMK A01 T01580151  RH  096%=      5-min Rain = 0
KHA3 231709Z 02009KT 16/15 A3001 RMK A01 T01590152  RH  096%=      5-min Rain = 0
KHA3 231710Z 02011KT 16/15 A30 RMK A01 T01600154  RH  096%=      5-min Rain = 0
KHA3 231711Z 02011KT 16/15 A30 RMK A01 T01600153  RH  096%=      5-min Rain = 0
KHA3 231712Z 02013KT 16/15 A2999 RMK A01 T01610154  RH  096%=      5-min Rain = 0
KHA3 231713Z 02013KT 16/16 A2999 RMK A01 T01620155  RH  096%=      5-min Rain = 0
KHA3 231714Z 02014KT 16/16 A2999 RMK A01 T01620155  RH  096%=      5-min Rain = 0
KHA3 231715Z 02015KT 16/16 A2999 RMK A01 T01620155  RH  096%=      5-min Rain = 0
KHA3 231716Z 02014KT 16/15 A2999 RMK A01 T01620154  RH  095%=      5-min Rain = 0
KHA3 231717Z 02016KT 16/15 A2999 RMK A01 T01620153  RH  095%=      5-min Rain = 0
KHA3 231718Z 02014KT 16/15 A30 RMK A01 T01620153  RH  095%=      5-min Rain = 0
KHA3 231719Z 03014KT 16/15 A30 RMK A01 T01620151  RH  093%=      5-min Rain = 0
KHA3 231720Z 03015KT 16/15 A30 RMK A01 T01620150  RH  093%=      5-min Rain = 0
KHA3 231721Z 04012KT 16/15 A3001 RMK A01 T01620149  RH  092%=      5-min Rain = 0
KHA3 231722Z 04011KT 16/15 A3001 RMK A01 T01630150  RH  092%=      5-min Rain = 0
KHA3 231723Z 04010KT 16/15 A3001 RMK A01 T01640152  RH  093%=      5-min Rain = 0
KHA3 231724Z 04012KT 17/15 A3001 RMK A01 T01650152  RH  092%=      5-min Rain = 0
KHA3 231725Z 04013KT 17/15 A3001 RMK A01 T01650152  RH  092%=      5-min Rain = 0
KHA3 231726Z 04012KT 17/15 A3001 RMK A01 T01650152  RH  092%=      5-min Rain = 0
KHA3 231727Z 03012KT 17/15 A3001 RMK A01 T01660151  RH  091%=      5-min Rain = 0
KHA3 231728Z 04010KT 17/15 A3001 RMK A01 T01660153  RH  092%=      5-min Rain = 0
KHA3 231729Z 05009KT 17/16 A3001 RMK A01 T01680156  RH  093%=      5-min Rain = 0
KHA3 231730Z 05011KT 17/16 A3001 RMK A01 T01690157  RH  093%=      5-min Rain = 0
KHA3 231731Z 05014KT 17/15 A3001 RMK A01 T01690152  RH  090%=      5-min Rain = 0
KHA3 231732Z 04011KT 17/15 A3001 RMK A01 T01680151  RH  090%=      5-min Rain = 0
KHA3 231733Z 04011KT 17/15 A3001 RMK A01 T01690152  RH  090%=      5-min Rain = 0
KHA3 231734Z 05009KT 17/16 A3002 RMK A01 T01700155  RH  091%=      5-min Rain = 0
KHA3 231735Z 05012KT 17/16 A3002 RMK A01 T01740158  RH  090%=      5-min Rain = 0
KHA3 231736Z 04010KT 18/15 A3002 RMK A01 T01750154  RH  088%=      5-min Rain = 0
KHA3 231737Z 04013KT 18/15 A3002 RMK A01 T01750154  RH  087%=      5-min Rain = 0
KHA3 231738Z 04012KT 17/15 A3002 RMK A01 T01730151  RH  087%=      5-min Rain = 0
KHA3 231739Z 04013KT 17/15 A3002 RMK A01 T01710148  RH  087%=      5-min Rain = 0
KHA3 231740Z 03012KT 17/15 A3002 RMK A01 T01690149  RH  088%=      5-min Rain = 0
KHA3 231741Z 03011KT 17/15 A3002 RMK A01 T01690151  RH  089%=      5-min Rain = 0
KHA3 231742Z 04009KT 17/15 A3002 RMK A01 T01690151  RH  089%=      5-min Rain = 0
KHA3 231743Z 04012KT 17/15 A3002 RMK A01 T01690152  RH  090%=      5-min Rain = 0
KHA3 231744Z 04010KT 17/15 A3002 RMK A01 T01690153  RH  090%=      5-min Rain = 0
KHA3 231745Z 04009KT 17/15 A3002 RMK A01 T01700154  RH  090%=      5-min Rain = 0
KHA3 231746Z 05011KT 17/15 A3002 RMK A01 T01700153  RH  090%=      5-min Rain = 0
KHA3 231747Z 03012KT 17/15 A3002 RMK A01 T01690151  RH  089%=      5-min Rain = 0
KHA3 231748Z 03012KT 17/15 A3002 RMK A01 T01680149  RH  088%=      5-min Rain = 0
KHA3 231749Z 02011KT 17/15 A3003 RMK A01 T01670149  RH  089%=      5-min Rain = 0
KHA3 231750Z 02011KT 17/15 A3003 RMK A01 T01670150  RH  090%=      5-min Rain = 0
KHA3 231751Z 02010KT 17/15 A3003 RMK A01 T01660149  RH  090%=      5-min Rain = 0
KHA3 231752Z 02010KT 17/15 A3003 RMK A01 T01650149  RH  090%=      5-min Rain = 0
KHA3 231753Z 02011KT 17/15 A3003 RMK A01 T01650149  RH  090%=      5-min Rain = 0
KHA3 231754Z 01011KT 17/15 A3003 RMK A01 T01650148  RH  090%=      5-min Rain = 0
KHA3 231755Z 01011KT 17/15 A3003 RMK A01 T01650148  RH  090%=      5-min Rain = 0
KHA3 231756Z 01012KT 17/15 A3003 RMK A01 T01650149  RH  090%=      5-min Rain = 0
KHA3 231757Z 02012KT 17/15 A3003 RMK A01 T01650147  RH  089%=      5-min Rain = 0
KHA3 231758Z 02010KT 17/15 A3003 RMK A01 T01650146  RH  088%=      5-min Rain = 0
KHA3 231759Z 02010KT 17/15 A3003 RMK A01 T01650147  RH  089%=      5-min Rain = 0
KHA3 231800Z 02010KT 17/15 A3003 RMK A01 T01660148  RH  089%=      5-min Rain = 0
KHA3 231801Z 03011KT 17/15 A3003 RMK A01 T01660148  RH  089%=      5-min Rain = 0
KHA3 231802Z 03012KT 17/15 A3003 RMK A01 T01660148  RH  089%=      5-min Rain = 0
KHA3 231803Z 03011KT 17/15 A3003 RMK A01 T01660146  RH  088%=      5-min Rain = 0
KHA3 231804Z 02011KT 17/15 A3003 RMK A01 T01650146  RH  088%=      5-min Rain = 0
KHA3 231805Z 03011KT 17/15 A3003 RMK A01 T01650146  RH  088%=      5-min Rain = 0
KHA3 231806Z 03009KT 16/15 A3003 RMK A01 T01640145  RH  088%=      5-min Rain = 0
KHA3 231807Z 02012KT 16/14 A3003 RMK A01 T01640144  RH  088%=      5-min Rain = 0
KHA3 231808Z 02011KT 16/14 A3003 RMK A01 T01640144  RH  088%=      5-min Rain = 0
KHA3 231809Z 02010KT 16/14 A3003 RMK A01 T01630144  RH  088%=      5-min Rain = 0
KHA3 231810Z 02009KT 16/15 A3003 RMK A01 T01640145  RH  089%=      5-min Rain = 0
KHA3 231811Z 03009KT 16/15 A3003 RMK A01 T01640146  RH  089%=      5-min Rain = 0
KHA3 231812Z 01009KT 17/15 A3004 RMK A01 T01650146  RH  089%=      5-min Rain = 0
KHA3 231813Z 00010KT 17/15 A3004 RMK A01 T01650147  RH  089%=      5-min Rain = 0
KHA3 231814Z 00011KT 17/15 A3004 RMK A01 T01650145  RH  088%=      5-min Rain = 0
KHA3 231815Z 00011KT 17/15 A3004 RMK A01 T01650145  RH  088%=      5-min Rain = 0
KHA3 231816Z 00011KT 16/14 A3004 RMK A01 T01640143  RH  087%=      5-min Rain = 0
KHA3 231817Z 00010KT 16/14 A3004 RMK A01 T01640143  RH  087%=      5-min Rain = 0
KHA3 231818Z 00008KT 16/15 A3004 RMK A01 T01630145  RH  089%=      5-min Rain = 0
KHA3 231819Z 00010KT 17/15 A3004 RMK A01 T01650147  RH  089%=      5-min Rain = 0
KHA3 231820Z 01009KT 17/15 A3004 RMK A01 T01650146  RH  088%=      5-min Rain = 0
KHA3 231821Z 02009KT 17/15 A3004 RMK A01 T01650145  RH  088%=      5-min Rain = 0
KHA3 231822Z 02008KT 17/15 A3004 RMK A01 T01650146  RH  088%=      5-min Rain = 0
KHA3 231823Z 02010KT 17/15 A3004 RMK A01 T01650146  RH  088%=      5-min Rain = 0
KHA3 231824Z 02012KT 17/14 A3004 RMK A01 T01650144  RH  087%=      5-min Rain = 0
KHA3 231825Z 02010KT 16/15 A3004 RMK A01 T01640145  RH  088%=      5-min Rain = 0
KHA3 231826Z 02010KT 16/15 A3004 RMK A01 T01640146  RH  089%=      5-min Rain = 0
KHA3 231827Z 02012KT 16/15 A3004 RMK A01 T01640146  RH  089%=      5-min Rain = 0
KHA3 231828Z 02013KT 16/14 A3004 RMK A01 T01630143  RH  088%=      5-min Rain = 0
KHA3 231829Z 01013KT 16/14 A3004 RMK A01 T01610143  RH  089%=      5-min Rain = 0
KHA3 231830Z 02015KT 16/14 A3004 RMK A01 T01590142  RH  089%=      5-min Rain = 0
KHA3 231831Z 01014KT 16/14 A3004 RMK A01 T01570140  RH  090%=      5-min Rain = 0
KHA3 231832Z 02012KT 16/14 A3004 RMK A01 T01560141  RH  091%=      5-min Rain = 0
KHA3 231833Z 02011KT 16/14 A3004 RMK A01 T01560143  RH  092%=      5-min Rain = 0
KHA3 231834Z 01012KT 16/14 A3004 RMK A01 T01560142  RH  092%=      5-min Rain = 0
KHA3 231835Z 02013KT 16/14 A3004 RMK A01 T01550141  RH  092%=      5-min Rain = 0
KHA3 231836Z 02014KT 15/14 A3004 RMK A01 T01540141  RH  092%=      5-min Rain = 0
KHA3 231837Z 01013KT 15/14 A3004 RMK A01 T01530139  RH  091%=      5-min Rain = 0
KHA3 231838Z 01012KT 15/14 A3004 RMK A01 T01520140  RH  092%=      5-min Rain = 0
KHA3 231839Z 02012KT 15/14 A3004 RMK A01 T01520140  RH  093%=      5-min Rain = 0
KHA3 231840Z 01012KT 15/14 A3004 RMK A01 T01520140  RH  093%=      5-min Rain = 0
KHA3 231841Z 01010KT 15/14 A3004 RMK A01 T01510141  RH  093%=      5-min Rain = 0
KHA3 231842Z 01013KT 15/14 A3004 RMK A01 T01510140  RH  093%=      5-min Rain = 0
KHA3 231843Z 02012KT 15/14 A3004 RMK A01 T01510140  RH  093%=      5-min Rain = 0
KHA3 231844Z 01011KT 15/14 A3004 RMK A01 T01500140  RH  093%=      5-min Rain = 0
KHA3 231845Z 01011KT 15/14 A3004 RMK A01 T01510140  RH  094%=      5-min Rain = 0
KHA3 231846Z 01012KT 15/14 A3004 RMK A01 T01500140  RH  093%=      5-min Rain = 0
KHA3 231847Z 01011KT 15/14 A3004 RMK A01 T01500140  RH  094%=      5-min Rain = 0
KHA3 231848Z 01011KT 15/14 A3004 RMK A01 T01500140  RH  094%=      5-min Rain = 0
KHA3 231849Z 02012KT 15/14 A3004 RMK A01 T01500140  RH  094%=      5-min Rain = 0
KHA3 231850Z 01012KT 15/14 A3004 RMK A01 T01500140  RH  093%=      5-min Rain = 0
KHA3 231851Z 01011KT 15/14 A3004 RMK A01 T01500140  RH  093%=      5-min Rain = 0
KHA3 231852Z 01011KT 15/14 A3004 RMK A01 T01500140  RH  094%=      5-min Rain = 0
KHA3 231853Z 01011KT 15/14 A3004 RMK A01 T01500140  RH  094%=      5-min Rain = 0
KHA3 231854Z 02009KT 15/14 A3004 RMK A01 T01500140  RH  094%=      5-min Rain = 0
KHA3 231855Z 02011KT 15/14 A3004 RMK A01 T01500140  RH  094%=      5-min Rain = 0
KHA3 231856Z 02010KT 15/14 A3004 RMK A01 T01510140  RH  094%=      5-min Rain = 0
KHA3 231857Z 02009KT 15/14 A3004 RMK A01 T01510141  RH  094%=      5-min Rain = 0
KHA3 231858Z 03010KT 15/14 A3004 RMK A01 T01510141  RH  093%=      5-min Rain = 0
KHA3 231859Z 03010KT 15/14 A3004 RMK A01 T01520141  RH  093%=      5-min Rain = 0
KHA3 231900Z 02008KT 15/14 A3003 RMK A01 T01520141  RH  093%=      5-min Rain = 0
KHA3 231901Z 02009KT 15/14 A3004 RMK A01 T01520141  RH  093%=      5-min Rain = 0
KHA3 231902Z 01010KT 15/14 A3004 RMK A01 T01520142  RH  094%=      5-min Rain = 0
KHA3 231903Z 02009KT 15/14 A3004 RMK A01 T01520141  RH  093%=      5-min Rain = 0
KHA3 231904Z 02009KT 15/14 A3004 RMK A01 T01510141  RH  093%=      5-min Rain = 0
KHA3 231905Z 02008KT 15/14 A3004 RMK A01 T01510140  RH  093%=      5-min Rain = 0
KHA3 231906Z 02009KT 15/14 A3004 RMK A01 T01510141  RH  093%=      5-min Rain = 0
KHA3 231907Z 01008KT 15/14 A3004 RMK A01 T01510141  RH  093%=      5-min Rain = 0
KHA3 231908Z 01008KT 15/14 A3004 RMK A01 T01520142  RH  094%=      5-min Rain = 0
KHA3 231909Z 02007KT 15/14 A3004 RMK A01 T01520142  RH  094%=      5-min Rain = 0
KHA3 231910Z 02008KT 15/14 A3004 RMK A01 T01520142  RH  093%=      5-min Rain = 0
KHA3 231911Z 02008KT 15/14 A3004 RMK A01 T01520141  RH  093%=      5-min Rain = 0
KHA3 231912Z 02007KT 15/14 A3004 RMK A01 T01530142  RH  093%=      5-min Rain = 0
KHA3 231913Z 02006KT 15/14 A3004 RMK A01 T01540144  RH  094%=      5-min Rain = 0
KHA3 231914Z 02005KT 15/14 A3004 RMK A01 T01540143  RH  093%=      5-min Rain = 0
KHA3 231915Z 02007KT 15/14 A3004 RMK A01 T01540142  RH  093%=      5-min Rain = 0
KHA3 231916Z 03007KT 15/14 A3004 RMK A01 T01540142  RH  092%=      5-min Rain = 0
KHA3 231917Z 03007KT 15/14 A3004 RMK A01 T01540141  RH  092%=      5-min Rain = 0
KHA3 231918Z 03007KT 15/14 A3004 RMK A01 T01540141  RH  092%=      5-min Rain = 0
KHA3 231919Z 02008KT 15/14 A3004 RMK A01 T01540141  RH  092%=      5-min Rain = 0
KHA3 231920Z 03008KT 15/14 A3004 RMK A01 T01540140  RH  091%=      5-min Rain = 0
KHA3 231921Z 03009KT 15/14 A3004 RMK A01 T01540140  RH  091%=      5-min Rain = 0
KHA3 231922Z 03008KT 16/14 A3004 RMK A01 T01550142  RH  092%=      5-min Rain = 0
KHA3 231923Z 02008KT 16/14 A3004 RMK A01 T01560142  RH  092%=      5-min Rain = 0
KHA3 231924Z 02007KT 16/14 A3004 RMK A01 T01560141  RH  091%=      5-min Rain = 0
KHA3 231925Z 02008KT 16/14 A3004 RMK A01 T01560141  RH  091%=      5-min Rain = 0
KHA3 231926Z 02009KT 16/14 A3004 RMK A01 T01550141  RH  091%=      5-min Rain = 0
KHA3 231927Z 02009KT 16/14 A3004 RMK A01 T01560141  RH  091%=      5-min Rain = 0
KHA3 231928Z 02008KT 16/14 A3004 RMK A01 T01550141  RH  091%=      5-min Rain = 0
KHA3 231929Z 01009KT 16/14 A3004 RMK A01 T01550142  RH  092%=      5-min Rain = 0
KHA3 231930Z 02009KT 16/14 A3004 RMK A01 T01550141  RH  091%=      5-min Rain = 0
KHA3 231931Z 03009KT 16/14 A3004 RMK A01 T01550141  RH  092%=      5-min Rain = 0
KHA3 231932Z 03009KT 16/14 A3004 RMK A01 T01550141  RH  092%=      5-min Rain = 0
KHA3 231933Z 02008KT 15/14 A3004 RMK A01 T01540142  RH  092%=      5-min Rain = 0
KHA3 231934Z 03009KT 15/14 A3004 RMK A01 T01540142  RH  092%=      5-min Rain = 0
KHA3 231935Z 03009KT 16/14 A3004 RMK A01 T01550142  RH  092%=      5-min Rain = 0
KHA3 231936Z 03008KT 16/14 A3003 RMK A01 T01550141  RH  092%=      5-min Rain = 0
KHA3 231937Z 03009KT 16/14 A3003 RMK A01 T01550141  RH  091%=      5-min Rain = 0
KHA3 231938Z 03009KT 16/14 A3003 RMK A01 T01550141  RH  091%=      5-min Rain = 0
KHA3 231939Z 03009KT 16/14 A3003 RMK A01 T01550143  RH  092%=      5-min Rain = 0
KHA3 231940Z 04008KT 16/14 A3003 RMK A01 T01550142  RH  092%=      5-min Rain = 0
KHA3 231941Z 04007KT 16/14 A3003 RMK A01 T01550142  RH  092%=      5-min Rain = 0
KHA3 231942Z 04006KT 16/14 A3003 RMK A01 T01550143  RH  092%=      5-min Rain = 0
KHA3 231943Z 04007KT 16/14 A3004 RMK A01 T01560143  RH  092%=      5-min Rain = 0
KHA3 231944Z 04007KT 16/14 A3004 RMK A01 T01560142  RH  091%=      5-min Rain = 0
KHA3 231945Z 04008KT 16/14 A3004 RMK A01 T01550140  RH  091%=      5-min Rain = 0
KHA3 231946Z 04006KT 16/14 A3004 RMK A01 T01550140  RH  091%=      5-min Rain = 0
KHA3 231947Z 04007KT 16/14 A3004 RMK A01 T01550141  RH  091%=      5-min Rain = 0
KHA3 231948Z 04007KT 16/14 A3004 RMK A01 T01550141  RH  092%=      5-min Rain = 0
KHA3 231949Z 05007KT 16/14 A3004 RMK A01 T01550142  RH  092%=      5-min Rain = 0
KHA3 231950Z 05006KT 16/14 A3004 RMK A01 T01550142  RH  092%=      5-min Rain = 0
KHA3 231951Z 05006KT 16/14 A3004 RMK A01 T01550143  RH  092%=      5-min Rain = 0
KHA3 231952Z 05007KT 16/14 A3004 RMK A01 T01560144  RH  092%=      5-min Rain = 0
KHA3 231953Z 05006KT 16/14 A3004 RMK A01 T01560144  RH  093%=      5-min Rain = 0
KHA3 231954Z 04006KT 16/15 A3004 RMK A01 T01560145  RH  093%=      5-min Rain = 0
KHA3 231955Z 03007KT 16/15 A3004 RMK A01 T01560146  RH  094%=      5-min Rain = 0
KHA3 231956Z 04008KT 16/15 A3004 RMK A01 T01560145  RH  093%=      5-min Rain = 0
KHA3 231957Z 03010KT 16/14 A3004 RMK A01 T01560144  RH  093%=      5-min Rain = 0.01
KHA3 231958Z 04009KT 16/14 A3004 RMK A01 T01550143  RH  092%=      5-min Rain = 0
KHA3 231959Z 03008KT 15/14 A3004 RMK A01 T01540143  RH  093%=      5-min Rain = 0
KHA3 232000Z 04008KT 15/14 A3004 RMK A01 T01540143  RH  093%=      5-min Rain = 0
KHA3 232001Z 04007KT 15/14 A3004 RMK A01 T01530143  RH  094%=      5-min Rain = 0
KHA3 232002Z 03008KT 15/14 A3004 RMK A01 T01530144  RH  094%=      5-min Rain = 0
KHA3 232003Z 04009KT 15/14 A3004 RMK A01 T01530143  RH  094%=      5-min Rain = 0
KHA3 232004Z 03008KT 15/14 A3004 RMK A01 T01520141  RH  093%=      5-min Rain = 0
KHA3 232005Z 04007KT 15/14 A3004 RMK A01 T01520141  RH  093%=      5-min Rain = 0
KHA3 232006Z 04009KT 15/14 A3004 RMK A01 T01520142  RH  094%=      5-min Rain = 0
KHA3 232007Z 05008KT 15/14 A3004 RMK A01 T01520142  RH  094%=      5-min Rain = 0
KHA3 232008Z 05008KT 15/14 A3004 RMK A01 T01520142  RH  094%=      5-min Rain = 0
KHA3 232009Z 04007KT 15/14 A3004 RMK A01 T01520142  RH  094%=      5-min Rain = 0
KHA3 232010Z 05007KT 15/14 A3004 RMK A01 T01510142  RH  094%=      5-min Rain = 0
KHA3 232011Z 04006KT 15/14 A3004 RMK A01 T01520142  RH  094%=      5-min Rain = 0
KHA3 232012Z 04006KT 15/14 A3004 RMK A01 T01520142  RH  094%=      5-min Rain = 0
KHA3 232013Z 05006KT 15/14 A3003 RMK A01 T01520143  RH  095%=      5-min Rain = 0
KHA3 232014Z 04006KT 15/14 A3003 RMK A01 T01520143  RH  094%=      5-min Rain = 0
KHA3 232015Z 04006KT 15/14 A3003 RMK A01 T01520143  RH  094%=      5-min Rain = 0
KHA3 232016Z 05006KT 15/14 A3003 RMK A01 T01520143  RH  094%=      5-min Rain = 0
KHA3 232017Z 04007KT 15/14 A3003 RMK A01 T01520143  RH  094%=      5-min Rain = 0
KHA3 232018Z 05006KT 15/14 A3003 RMK A01 T01520142  RH  094%=      5-min Rain = 0
KHA3 232019Z 05006KT 15/14 A3003 RMK A01 T01520143  RH  094%=      5-min Rain = 0
KHA3 232020Z 04005KT 15/14 A3003 RMK A01 T01520143  RH  094%=      5-min Rain = 0
KHA3 232021Z 05006KT 15/14 A3003 RMK A01 T01530144  RH  095%=      5-min Rain = 0
KHA3 232022Z 04006KT 15/14 A3003 RMK A01 T01530143  RH  094%=      5-min Rain = 0
KHA3 232023Z 04005KT 15/14 A3003 RMK A01 T01530142  RH  093%=      5-min Rain = 0
KHA3 232024Z 04005KT 15/14 A3003 RMK A01 T01530143  RH  094%=      5-min Rain = 0
KHA3 232025Z 03006KT 15/14 A3003 RMK A01 T01530143  RH  093%=      5-min Rain = 0
KHA3 232026Z 04006KT 15/14 A3003 RMK A01 T01530142  RH  093%=      5-min Rain = 0
KHA3 232027Z 03007KT 15/14 A3003 RMK A01 T01520141  RH  093%=      5-min Rain = 0
KHA3 232028Z 03006KT 15/14 A3003 RMK A01 T01530141  RH  093%=      5-min Rain = 0
KHA3 232029Z 01006KT 15/14 A3003 RMK A01 T01530142  RH  094%=      5-min Rain = 0
KHA3 232030Z 01007KT 15/14 A3003 RMK A01 T01530143  RH  093%=      5-min Rain = 0
KHA3 232031Z 02005KT 15/14 A3003 RMK A01 T01530142  RH  093%=      5-min Rain = 0
KHA3 232032Z 03004KT 15/14 A3003 RMK A01 T01540144  RH  094%=      5-min Rain = 0
KHA3 232033Z 03005KT 15/14 A3003 RMK A01 T01540144  RH  094%=      5-min Rain = 0
KHA3 232034Z 03009KT 15/14 A3003 RMK A01 T01540144  RH  094%=      5-min Rain = 0
KHA3 232035Z 03009KT 15/14 A3003 RMK A01 T01540143  RH  093%=      5-min Rain = 0
KHA3 232036Z 03007KT 15/14 A3003 RMK A01 T01530143  RH  093%=      5-min Rain = 0
KHA3 232037Z 03006KT 15/14 A3003 RMK A01 T01540144  RH  094%=      5-min Rain = 0
KHA3 232038Z 02009KT 15/15 A3003 RMK A01 T01530145  RH  095%=      5-min Rain = 0.01
KHA3 232039Z 02009KT 15/14 A3003 RMK A01 T01530144  RH  094%=      5-min Rain = 0
KHA3 232040Z 02008KT 15/14 A3003 RMK A01 T01520143  RH  094%=      5-min Rain = 0
KHA3 232041Z 02009KT 15/14 A3003 RMK A01 T01520143  RH  095%=      5-min Rain = 0
KHA3 232042Z 03006KT 15/14 A3003 RMK A01 T01520144  RH  095%=      5-min Rain = 0
KHA3 232043Z 02006KT 15/15 A3003 RMK A01 T01520145  RH  095%=      5-min Rain = 0
KHA3 232044Z 02006KT 15/15 A3003 RMK A01 T01520145  RH  096%=      5-min Rain = 0
KHA3 232045Z 03008KT 15/15 A3003 RMK A01 T01520145  RH  095%=      5-min Rain = 0
KHA3 232046Z 03007KT 15/15 A3003 RMK A01 T01530145  RH  095%=      5-min Rain = 0
KHA3 232047Z 03008KT 15/15 A3003 RMK A01 T01530146  RH  096%=      5-min Rain = 0
KHA3 232048Z 03008KT 15/15 A3003 RMK A01 T01530145  RH  095%=      5-min Rain = 0
KHA3 232049Z 03008KT 15/15 A3003 RMK A01 T01520145  RH  095%=      5-min Rain = 0
KHA3 232050Z 03009KT 15/15 A3003 RMK A01 T01530145  RH  095%=      5-min Rain = 0
KHA3 232051Z 03008KT 15/14 A3003 RMK A01 T01530144  RH  095%=      5-min Rain = 0
KHA3 232052Z 03008KT 15/15 A3003 RMK A01 T01530145  RH  095%=      5-min Rain = 0
KHA3 232053Z 03009KT 15/15 A3003 RMK A01 T01540145  RH  094%=      5-min Rain = 0
KHA3 232054Z 03009KT 15/14 A3003 RMK A01 T01540144  RH  094%=      5-min Rain = 0
KHA3 232055Z 03007KT 15/14 A3003 RMK A01 T01540144  RH  094%=      5-min Rain = 0
KHA3 232056Z 03007KT 16/15 A3003 RMK A01 T01550147  RH  095%=      5-min Rain = 0
KHA3 232057Z 03008KT 16/15 A3003 RMK A01 T01560145  RH  093%=      5-min Rain = 0
KHA3 232058Z 03008KT 16/14 A3003 RMK A01 T01550144  RH  093%=      5-min Rain = 0
KHA3 232059Z 03008KT 16/14 A3003 RMK A01 T01560143  RH  092%=      5-min Rain = 0
KHA3 232100Z 05007KT 16/14 A3003 RMK A01 T01550142  RH  092%=      5-min Rain = 0
KHA3 232101Z 04008KT 16/14 A3003 RMK A01 T01550143  RH  092%=      5-min Rain = 0
KHA3 232102Z 04007KT 16/14 A3003 RMK A01 T01560142  RH  092%=      5-min Rain = 0
KHA3 232103Z 05008KT 16/14 A3003 RMK A01 T01560144  RH  092%=      5-min Rain = 0
KHA3 232104Z 03007KT 16/14 A3003 RMK A01 T01560144  RH  093%=      5-min Rain = 0
KHA3 232105Z 02008KT 16/15 A3002 RMK A01 T01570145  RH  093%=      5-min Rain = 0
KHA3 232106Z 02009KT 16/14 A3002 RMK A01 T01560143  RH  092%=      5-min Rain = 0
KHA3 232107Z 02009KT 16/14 A3002 RMK A01 T01570142  RH  091%=      5-min Rain = 0
KHA3 232108Z 03011KT 16/14 A3002 RMK A01 T01570141  RH  091%=      5-min Rain = 0
KHA3 232109Z 02009KT 16/14 A3002 RMK A01 T01570141  RH  090%=      5-min Rain = 0
KHA3 232110Z 03008KT 16/14 A3002 RMK A01 T01570142  RH  090%=      5-min Rain = 0
KHA3 232111Z 03009KT 16/14 A3002 RMK A01 T01580144  RH  091%=      5-min Rain = 0
KHA3 232112Z 02011KT 16/14 A3002 RMK A01 T01580141  RH  090%=      5-min Rain = 0
KHA3 232113Z 03012KT 16/14 A3002 RMK A01 T01580140  RH  089%=      5-min Rain = 0
KHA3 232114Z 03013KT 16/14 A3002 RMK A01 T01580139  RH  088%=      5-min Rain = 0
KHA3 232115Z 03011KT 16/14 A3002 RMK A01 T01570138  RH  088%=      5-min Rain = 0
KHA3 232116Z 04010KT 16/14 A3002 RMK A01 T01560139  RH  089%=      5-min Rain = 0
KHA3 232117Z 03009KT 16/14 A3002 RMK A01 T01560140  RH  090%=      5-min Rain = 0
KHA3 232118Z 03007KT 16/14 A3002 RMK A01 T01560141  RH  091%=      5-min Rain = 0
KHA3 232119Z 03007KT 16/14 A3002 RMK A01 T01560142  RH  091%=      5-min Rain = 0
KHA3 232120Z 02008KT 16/14 A3002 RMK A01 T01570143  RH  091%=      5-min Rain = 0
KHA3 232121Z 03007KT 16/14 A3002 RMK A01 T01580143  RH  091%=      5-min Rain = 0
KHA3 232122Z 02010KT 16/14 A3002 RMK A01 T01590143  RH  090%=      5-min Rain = 0
KHA3 232123Z 02009KT 16/14 A3002 RMK A01 T01590140  RH  088%=      5-min Rain = 0
KHA3 232124Z 02007KT 16/14 A3002 RMK A01 T01600141  RH  088%=      5-min Rain = 0
KHA3 232125Z 02007KT 16/15 A3002 RMK A01 T01620146  RH  090%=      5-min Rain = 0
KHA3 232126Z 02009KT 16/14 A3002 RMK A01 T01630143  RH  088%=      5-min Rain = 0
KHA3 232127Z 02010KT 16/14 A3002 RMK A01 T01630141  RH  087%=      5-min Rain = 0
KHA3 232128Z 02011KT 16/14 A3002 RMK A01 T01630140  RH  086%=      5-min Rain = 0
KHA3 232129Z 02009KT 16/14 A3002 RMK A01 T01630140  RH  086%=      5-min Rain = 0
KHA3 232130Z 02010KT 16/14 A3001 RMK A01 T01630140  RH  086%=      5-min Rain = 0
KHA3 232131Z 01010KT 16/14 A3001 RMK A01 T01630138  RH  086%=      5-min Rain = 0
KHA3 232132Z 01007KT 16/14 A3002 RMK A01 T01630142  RH  088%=      5-min Rain = 0
KHA3 232133Z 01010KT 16/14 A3001 RMK A01 T01620141  RH  088%=      5-min Rain = 0
KHA3 232134Z 00012KT 16/14 A3001 RMK A01 T01600139  RH  087%=      5-min Rain = 0
KHA3 232135Z 00011KT 16/14 A3001 RMK A01 T01590138  RH  087%=      5-min Rain = 0
KHA3 232136Z 01011KT 16/14 A3001 RMK A01 T01590138  RH  088%=      5-min Rain = 0
KHA3 232137Z 00009KT 16/14 A3001 RMK A01 T01580139  RH  088%=      5-min Rain = 0
KHA3 232138Z 00008KT 16/14 A3001 RMK A01 T01580140  RH  089%=      5-min Rain = 0
KHA3 232139Z 00011KT 16/14 A3001 RMK A01 T01580139  RH  088%=      5-min Rain = 0
KHA3 232140Z 01011KT 16/14 A3001 RMK A01 T01570138  RH  088%=      5-min Rain = 0
KHA3 232141Z 00010KT 16/14 A3001 RMK A01 T01570139  RH  089%=      5-min Rain = 0
KHA3 232142Z 01010KT 16/14 A3001 RMK A01 T01570139  RH  089%=      5-min Rain = 0
KHA3 232143Z 00011KT 16/14 A3001 RMK A01 T01570138  RH  088%=      5-min Rain = 0
KHA3 232144Z 00011KT 16/14 A3001 RMK A01 T01570138  RH  089%=      5-min Rain = 0
KHA3 232145Z 01010KT 16/14 A3001 RMK A01 T01570138  RH  088%=      5-min Rain = 0
KHA3 232146Z 01010KT 16/14 A3001 RMK A01 T01570139  RH  089%=      5-min Rain = 0
KHA3 232147Z 01009KT 16/14 A3001 RMK A01 T01570139  RH  089%=      5-min Rain = 0
KHA3 232148Z 00009KT 16/14 A3001 RMK A01 T01570140  RH  090%=      5-min Rain = 0
KHA3 232149Z 00012KT 16/14 A3001 RMK A01 T01570138  RH  089%=      5-min Rain = 0
KHA3 232150Z 00012KT 16/14 A3001 RMK A01 T01570136  RH  088%=      5-min Rain = 0
KHA3 232151Z 01013KT 16/14 A3001 RMK A01 T01560136  RH  088%=      5-min Rain = 0
KHA3 232152Z 01011KT 16/14 A3001 RMK A01 T01560136  RH  088%=      5-min Rain = 0
KHA3 232153Z 02010KT 16/14 A3001 RMK A01 T01560135  RH  087%=      5-min Rain = 0
KHA3 232154Z 02010KT 16/14 A3001 RMK A01 T01560136  RH  088%=      5-min Rain = 0
KHA3 232155Z 02010KT 16/14 A3001 RMK A01 T01560135  RH  087%=      5-min Rain = 0
KHA3 232156Z 02011KT 16/14 A3001 RMK A01 T01560135  RH  087%=      5-min Rain = 0
KHA3 232157Z 01009KT 16/14 A3001 RMK A01 T01560136  RH  088%=      5-min Rain = 0
KHA3 232158Z 01011KT 16/14 A3001 RMK A01 T01560137  RH  088%=      5-min Rain = 0
KHA3 232159Z 01012KT 16/14 A3001 RMK A01 T01560135  RH  087%=      5-min Rain = 0
KHA3 232200Z 01011KT 16/14 A3001 RMK A01 T01560136  RH  088%=      5-min Rain = 0
KHA3 232201Z 02011KT 16/14 A3001 RMK A01 T01570136  RH  088%=      5-min Rain = 0
KHA3 232202Z 01011KT 16/14 A30 RMK A01 T01570136  RH  087%=      5-min Rain = 0
KHA3 232203Z 00012KT 16/14 A30 RMK A01 T01570137  RH  088%=      5-min Rain = 0
KHA3 232204Z 00012KT 16/14 A30 RMK A01 T01570136  RH  088%=      5-min Rain = 0
KHA3 232205Z 01012KT 16/14 A30 RMK A01 T01570136  RH  088%=      5-min Rain = 0
KHA3 232206Z 00013KT 16/14 A30 RMK A01 T01560136  RH  088%=      5-min Rain = 0
KHA3 232207Z 01013KT 16/14 A30 RMK A01 T01560135  RH  087%=      5-min Rain = 0
KHA3 232208Z 01013KT 16/14 A30 RMK A01 T01560136  RH  088%=      5-min Rain = 0
KHA3 232209Z 00013KT 16/14 A30 RMK A01 T01560135  RH  087%=      5-min Rain = 0
KHA3 232210Z 00012KT 16/14 A30 RMK A01 T01560135  RH  088%=      5-min Rain = 0
KHA3 232211Z 01012KT 16/14 A30 RMK A01 T01560136  RH  088%=      5-min Rain = 0
KHA3 232212Z 00013KT 16/14 A30 RMK A01 T01560135  RH  087%=      5-min Rain = 0
KHA3 232213Z 00012KT 16/13 A30 RMK A01 T01560134  RH  087%=      5-min Rain = 0
KHA3 232214Z 01012KT 16/13 A3001 RMK A01 T01560134  RH  087%=      5-min Rain = 0
KHA3 232215Z 00011KT 16/13 A30 RMK A01 T01560133  RH  087%=      5-min Rain = 0
KHA3 232216Z 00012KT 16/14 A3001 RMK A01 T01560135  RH  087%=      5-min Rain = 0
KHA3 232217Z 00011KT 16/14 A3001 RMK A01 T01560135  RH  087%=      5-min Rain = 0
KHA3 232218Z 36011KT 16/14 A3001 RMK A01 T01560135  RH  087%=      5-min Rain = 0
KHA3 232219Z 01012KT 16/14 A3001 RMK A01 T01560135  RH  088%=      5-min Rain = 0
KHA3 232220Z 01012KT 16/13 A30 RMK A01 T01560134  RH  087%=      5-min Rain = 0
KHA3 232221Z 01013KT 16/13 A30 RMK A01 T01560134  RH  087%=      5-min Rain = 0
KHA3 232222Z 01010KT 16/14 A30 RMK A01 T01560135  RH  088%=      5-min Rain = 0
KHA3 232223Z 00011KT 16/14 A30 RMK A01 T01550135  RH  088%=      5-min Rain = 0
KHA3 232224Z 00013KT 16/14 A30 RMK A01 T01550135  RH  088%=      5-min Rain = 0
KHA3 232225Z 00014KT 15/13 A30 RMK A01 T01540133  RH  087%=      5-min Rain = 0
KHA3 232226Z 01015KT 15/13 A30 RMK A01 T01540133  RH  087%=      5-min Rain = 0
KHA3 232227Z 01015KT 15/13 A30 RMK A01 T01540132  RH  087%=      5-min Rain = 0
KHA3 232228Z 00013KT 15/13 A30 RMK A01 T01530133  RH  088%=      5-min Rain = 0
KHA3 232229Z 00014KT 15/13 A30 RMK A01 T01530133  RH  088%=      5-min Rain = 0
KHA3 232230Z 00013KT 15/13 A30 RMK A01 T01530133  RH  088%=      5-min Rain = 0
KHA3 232231Z 00013KT 15/13 A30 RMK A01 T01530133  RH  088%=      5-min Rain = 0
KHA3 232232Z 00013KT 15/13 A30 RMK A01 T01530133  RH  088%=      5-min Rain = 0
KHA3 232233Z 00012KT 15/13 A30 RMK A01 T01530134  RH  088%=      5-min Rain = 0
KHA3 232234Z 01013KT 15/13 A30 RMK A01 T01530133  RH  088%=      5-min Rain = 0
KHA3 232235Z 00012KT 15/13 A30 RMK A01 T01530133  RH  088%=      5-min Rain = 0
KHA3 232236Z 00013KT 15/13 A30 RMK A01 T01530133  RH  088%=      5-min Rain = 0
KHA3 232237Z 00013KT 15/13 A30 RMK A01 T01540133  RH  088%=      5-min Rain = 0
KHA3 232238Z 01014KT 15/13 A30 RMK A01 T01530132  RH  087%=      5-min Rain = 0
KHA3 232239Z 01012KT 15/13 A30 RMK A01 T01530132  RH  087%=      5-min Rain = 0
KHA3 232240Z 01012KT 15/13 A30 RMK A01 T01540133  RH  088%=      5-min Rain = 0
KHA3 232241Z 01012KT 15/13 A30 RMK A01 T01540133  RH  088%=      5-min Rain = 0
KHA3 232242Z 01012KT 15/13 A30 RMK A01 T01540132  RH  087%=      5-min Rain = 0
KHA3 232243Z 01013KT 15/13 A30 RMK A01 T01540132  RH  087%=      5-min Rain = 0
KHA3 232244Z 01011KT 15/13 A30 RMK A01 T01540131  RH  087%=      5-min Rain = 0
KHA3 232245Z 00011KT 15/13 A30 RMK A01 T01540133  RH  088%=      5-min Rain = 0
KHA3 232246Z 01011KT 15/13 A30 RMK A01 T01540134  RH  088%=      5-min Rain = 0
KHA3 232247Z 00011KT 15/13 A30 RMK A01 T01540133  RH  087%=      5-min Rain = 0
KHA3 232248Z 01012KT 15/13 A30 RMK A01 T01540132  RH  087%=      5-min Rain = 0
KHA3 232249Z 01011KT 15/13 A30 RMK A01 T01540132  RH  086%=      5-min Rain = 0
KHA3 232250Z 00011KT 15/13 A30 RMK A01 T01540132  RH  087%=      5-min Rain = 0
KHA3 232251Z 00011KT 15/13 A30 RMK A01 T01540134  RH  088%=      5-min Rain = 0
KHA3 232252Z 00012KT 15/13 A30 RMK A01 T01540133  RH  087%=      5-min Rain = 0
KHA3 232253Z 01010KT 15/13 A30 RMK A01 T01540133  RH  087%=      5-min Rain = 0
KHA3 232254Z 00009KT 15/13 A30 RMK A01 T01540133  RH  087%=      5-min Rain = 0
KHA3 232255Z 00011KT 16/13 A30 RMK A01 T01550134  RH  088%=      5-min Rain = 0
KHA3 232256Z 00011KT 16/13 A30 RMK A01 T01550132  RH  086%=      5-min Rain = 0
KHA3 232257Z 01011KT 16/13 A30 RMK A01 T01550132  RH  086%=      5-min Rain = 0
KHA3 232258Z 36011KT 16/13 A30 RMK A01 T01550132  RH  086%=      5-min Rain = 0
KHA3 232259Z 01010KT 16/13 A30 RMK A01 T01550133  RH  087%=      5-min Rain = 0
KHA3 232300Z 00009KT 16/13 A30 RMK A01 T01550132  RH  086%=      5-min Rain = 0
KHA3 232301Z 00009KT 16/13 A3001 RMK A01 T01550134  RH  087%=      5-min Rain = 0
KHA3 232302Z 00010KT 16/13 A3001 RMK A01 T01550134  RH  087%=      5-min Rain = 0
KHA3 232303Z 00010KT 16/13 A3001 RMK A01 T01550133  RH  087%=      5-min Rain = 0
KHA3 232304Z 00011KT 16/13 A30 RMK A01 T01550132  RH  086%=      5-min Rain = 0
KHA3 232305Z 01011KT 16/13 A30 RMK A01 T01550132  RH  086%=      5-min Rain = 0
KHA3 232306Z 00010KT 16/13 A30 RMK A01 T01550131  RH  086%=      5-min Rain = 0
KHA3 232307Z 01010KT 16/13 A30 RMK A01 T01550133  RH  087%=      5-min Rain = 0
KHA3 232308Z 00011KT 16/13 A30 RMK A01 T01550133  RH  087%=      5-min Rain = 0
KHA3 232309Z 00011KT 16/13 A30 RMK A01 T01550132  RH  086%=      5-min Rain = 0
KHA3 232310Z 00011KT 16/13 A30 RMK A01 T01550132  RH  086%=      5-min Rain = 0
KHA3 232311Z 01012KT 16/13 A30 RMK A01 T01550132  RH  086%=      5-min Rain = 0
KHA3 232312Z 01010KT 16/13 A30 RMK A01 T01550133  RH  087%=      5-min Rain = 0
KHA3 232313Z 01010KT 16/13 A30 RMK A01 T01550134  RH  087%=      5-min Rain = 0
KHA3 232314Z 00010KT 16/13 A30 RMK A01 T01550134  RH  087%=      5-min Rain = 0
KHA3 232315Z 01011KT 15/13 A30 RMK A01 T01540132  RH  087%=      5-min Rain = 0
KHA3 232316Z 01010KT 15/13 A30 RMK A01 T01540131  RH  086%=      5-min Rain = 0
KHA3 232317Z 01008KT 15/13 A30 RMK A01 T01540132  RH  087%=      5-min Rain = 0
KHA3 232318Z 01008KT 15/13 A30 RMK A01 T01540133  RH  088%=      5-min Rain = 0
KHA3 232319Z 00009KT 15/13 A30 RMK A01 T01540133  RH  088%=      5-min Rain = 0
KHA3 232320Z 35010KT 15/13 A30 RMK A01 T01540133  RH  087%=      5-min Rain = 0
KHA3 232321Z 36011KT 15/13 A30 RMK A01 T01540132  RH  087%=      5-min Rain = 0
KHA3 232322Z 36012KT 15/13 A30 RMK A01 T01540132  RH  086%=      5-min Rain = 0
KHA3 232323Z 36012KT 15/13 A30 RMK A01 T01540131  RH  086%=      5-min Rain = 0
KHA3 232324Z 35012KT 16/13 A30 RMK A01 T01550131  RH  086%=      5-min Rain = 0
KHA3 232325Z 36012KT 16/13 A30 RMK A01 T01550131  RH  086%=      5-min Rain = 0
KHA3 232326Z 00011KT 15/13 A30 RMK A01 T01540131  RH  086%=      5-min Rain = 0
KHA3 232327Z 36011KT 15/13 A30 RMK A01 T01540132  RH  086%=      5-min Rain = 0
KHA3 232328Z 36012KT 15/13 A30 RMK A01 T01540131  RH  086%=      5-min Rain = 0
KHA3 232329Z 36010KT 15/13 A30 RMK A01 T01540132  RH  086%=      5-min Rain = 0
KHA3 232330Z 00012KT 16/13 A30 RMK A01 T01550131  RH  086%=      5-min Rain = 0
KHA3 232331Z 36012KT 16/13 A30 RMK A01 T01550130  RH  085%=      5-min Rain = 0
KHA3 232332Z 00011KT 16/13 A30 RMK A01 T01550130  RH  085%=      5-min Rain = 0
KHA3 232333Z 00011KT 16/13 A30 RMK A01 T01550132  RH  086%=      5-min Rain = 0
KHA3 232334Z 00010KT 16/13 A30 RMK A01 T01550131  RH  086%=      5-min Rain = 0
KHA3 232335Z 00011KT 16/13 A30 RMK A01 T01550131  RH  085%=      5-min Rain = 0
KHA3 232336Z 00011KT 16/13 A30 RMK A01 T01550131  RH  086%=      5-min Rain = 0
KHA3 232337Z 00010KT 16/13 A30 RMK A01 T01550131  RH  086%=      5-min Rain = 0
KHA3 232338Z 01010KT 16/13 A30 RMK A01 T01550131  RH  085%=      5-min Rain = 0
KHA3 232339Z 00011KT 16/13 A30 RMK A01 T01550130  RH  085%=      5-min Rain = 0
KHA3 232340Z 01009KT 16/13 A30 RMK A01 T01550130  RH  085%=      5-min Rain = 0
KHA3 232341Z 01009KT 16/13 A30 RMK A01 T01550131  RH  086%=      5-min Rain = 0
KHA3 232342Z 01009KT 16/13 A30 RMK A01 T01550131  RH  086%=      5-min Rain = 0
KHA3 232343Z 01010KT 16/13 A30 RMK A01 T01550131  RH  086%=      5-min Rain = 0
KHA3 232344Z 01010KT 15/13 A30 RMK A01 T01540130  RH  085%=      5-min Rain = 0
KHA3 232345Z 01012KT 15/13 A30 RMK A01 T01540130  RH  085%=      5-min Rain = 0
KHA3 232346Z 01010KT 15/13 A30 RMK A01 T01540130  RH  085%=      5-min Rain = 0
KHA3 232347Z 01010KT 15/13 A30 RMK A01 T01540130  RH  085%=      5-min Rain = 0
KHA3 232348Z 01009KT 15/13 A30 RMK A01 T01540130  RH  086%=      5-min Rain = 0
KHA3 232349Z 02009KT 15/13 A30 RMK A01 T01540132  RH  086%=      5-min Rain = 0
KHA3 232350Z 01009KT 15/13 A30 RMK A01 T01540131  RH  086%=      5-min Rain = 0
KHA3 232351Z 02009KT 15/13 A30 RMK A01 T01540131  RH  086%=      5-min Rain = 0
KHA3 232352Z 02008KT 15/13 A30 RMK A01 T01540131  RH  086%=      5-min Rain = 0
KHA3 232353Z 02010KT 15/13 A30 RMK A01 T01540131  RH  086%=      5-min Rain = 0
KHA3 232354Z 02009KT 15/13 A30 RMK A01 T01540130  RH  085%=      5-min Rain = 0
KHA3 232355Z 02010KT 15/13 A30 RMK A01 T01540129  RH  085%=      5-min Rain = 0
KHA3 232356Z 02009KT 15/13 A30 RMK A01 T01540129  RH  085%=      5-min Rain = 0
KHA3 232357Z 02009KT 15/13 A30 RMK A01 T01540130  RH  086%=      5-min Rain = 0
KHA3 232358Z 02010KT 15/13 A30 RMK A01 T01540130  RH  086%=      5-min Rain = 0
KHA3 232359Z 02009KT 15/13 A30 RMK A01 T01540129  RH  085%=      5-min Rain = 0
KHA3 240000Z 02008KT 15/13 A30 RMK A01 T01540131  RH  086%=      5-min Rain = 0
KHA3 240001Z 02008KT 15/13 A30 RMK A01 T01540131  RH  086%=      5-min Rain = 0
KHA3 240002Z 02008KT 15/13 A30 RMK A01 T01540131  RH  086%=      5-min Rain = 0
KHA3 240003Z 02008KT 15/13 A30 RMK A01 T01540131  RH  086%=      5-min Rain = 0
KHA3 240004Z 02009KT 15/13 A30 RMK A01 T01540131  RH  086%=      5-min Rain = 0
KHA3 240005Z 02009KT 15/13 A30 RMK A01 T01540131  RH  086%=      5-min Rain = 0
KHA3 240006Z 02009KT 15/13 A2999 RMK A01 T01540131  RH  086%=      5-min Rain = 0
KHA3 240007Z 02009KT 15/13 A2999 RMK A01 T01540130  RH  086%=      5-min Rain = 0
KHA3 240008Z 01009KT 15/13 A2999 RMK A01 T01540130  RH  086%=      5-min Rain = 0
KHA3 240009Z 02010KT 15/13 A2999 RMK A01 T01540130  RH  086%=      5-min Rain = 0
KHA3 240010Z 01009KT 15/13 A2999 RMK A01 T01540131  RH  086%=      5-min Rain = 0
KHA3 240011Z 01010KT 15/13 A2999 RMK A01 T01540130  RH  086%=      5-min Rain = 0
KHA3 240012Z 02011KT 15/13 A2999 RMK A01 T01540131  RH  086%=      5-min Rain = 0
KHA3 240013Z 02010KT 15/13 A2999 RMK A01 T01540129  RH  085%=      5-min Rain = 0
KHA3 240014Z 02009KT 15/13 A2999 RMK A01 T01540130  RH  085%=      5-min Rain = 0
KHA3 240015Z 03010KT 15/13 A2999 RMK A01 T01540131  RH  086%=      5-min Rain = 0
KHA3 240016Z 02010KT 15/13 A2999 RMK A01 T01540130  RH  086%=      5-min Rain = 0
KHA3 240017Z 02010KT 15/13 A2999 RMK A01 T01540130  RH  086%=      5-min Rain = 0
KHA3 240018Z 02009KT 15/13 A2999 RMK A01 T01540131  RH  086%=      5-min Rain = 0
KHA3 240019Z 02010KT 15/13 A2999 RMK A01 T01530130  RH  086%=      5-min Rain = 0
KHA3 240020Z 02009KT 15/13 A2999 RMK A01 T01530130  RH  086%=      5-min Rain = 0
KHA3 240021Z 02008KT 15/13 A2999 RMK A01 T01530131  RH  086%=      5-min Rain = 0
KHA3 240022Z 02011KT 15/13 A2999 RMK A01 T01530130  RH  086%=      5-min Rain = 0
KHA3 240023Z 02010KT 15/13 A2999 RMK A01 T01530130  RH  086%=      5-min Rain = 0
KHA3 240024Z 02009KT 15/13 A30 RMK A01 T01530130  RH  086%=      5-min Rain = 0
KHA3 240025Z 02009KT 15/13 A30 RMK A01 T01530130  RH  086%=      5-min Rain = 0
KHA3 240026Z 02010KT 15/13 A30 RMK A01 T01530130  RH  086%=      5-min Rain = 0
KHA3 240027Z 01011KT 15/13 A30 RMK A01 T01530129  RH  085%=      5-min Rain = 0
KHA3 240028Z 02011KT 15/13 A30 RMK A01 T01530128  RH  085%=      5-min Rain = 0
KHA3 240029Z 01011KT 15/13 A30 RMK A01 T01530128  RH  085%=      5-min Rain = 0
KHA3 240030Z 01009KT 15/13 A2999 RMK A01 T01530129  RH  085%=      5-min Rain = 0
KHA3 240031Z 01011KT 15/13 A2999 RMK A01 T01530130  RH  086%=      5-min Rain = 0
KHA3 240032Z 01011KT 15/13 A2999 RMK A01 T01530129  RH  086%=      5-min Rain = 0
KHA3 240033Z 01010KT 15/13 A2999 RMK A01 T01530130  RH  086%=      5-min Rain = 0
KHA3 240034Z 00010KT 15/13 A2999 RMK A01 T01530129  RH  086%=      5-min Rain = 0
KHA3 240035Z 01009KT 15/13 A30 RMK A01 T01530130  RH  086%=      5-min Rain = 0
KHA3 240036Z 01007KT 15/13 A30 RMK A01 T01530130  RH  086%=      5-min Rain = 0
KHA3 240037Z 02007KT 15/13 A30 RMK A01 T01530132  RH  087%=      5-min Rain = 0
KHA3 240038Z 03007KT 15/13 A30 RMK A01 T01530131  RH  087%=      5-min Rain = 0
KHA3 240039Z 03007KT 15/13 A30 RMK A01 T01530131  RH  087%=      5-min Rain = 0
KHA3 240040Z 03007KT 15/13 A30 RMK A01 T01530132  RH  087%=      5-min Rain = 0
KHA3 240041Z 03007KT 15/13 A30 RMK A01 T01530132  RH  087%=      5-min Rain = 0
KHA3 240042Z 02007KT 15/13 A30 RMK A01 T01520131  RH  087%=      5-min Rain = 0
KHA3 240043Z 02006KT 15/13 A30 RMK A01 T01530131  RH  087%=      5-min Rain = 0
KHA3 240044Z 02008KT 15/13 A2999 RMK A01 T01530131  RH  087%=      5-min Rain = 0
KHA3 240045Z 01008KT 15/13 A2999 RMK A01 T01530130  RH  086%=      5-min Rain = 0
KHA3 240046Z 01008KT 15/13 A2999 RMK A01 T01520130  RH  086%=      5-min Rain = 0
KHA3 240047Z 01009KT 15/13 A2999 RMK A01 T01530130  RH  086%=      5-min Rain = 0
KHA3 240048Z 02009KT 15/13 A2999 RMK A01 T01520130  RH  086%=      5-min Rain = 0
KHA3 240049Z 01008KT 15/13 A2999 RMK A01 T01520130  RH  086%=      5-min Rain = 0
KHA3 240050Z 01009KT 15/13 A2999 RMK A01 T01520130  RH  087%=      5-min Rain = 0
KHA3 240051Z 01008KT 15/13 A2999 RMK A01 T01530131  RH  087%=      5-min Rain = 0
KHA3 240052Z 01008KT 15/13 A2999 RMK A01 T01530131  RH  087%=      5-min Rain = 0
KHA3 240053Z 01008KT 15/13 A2999 RMK A01 T01520131  RH  087%=      5-min Rain = 0
KHA3 240054Z 01008KT 15/13 A2999 RMK A01 T01520130  RH  086%=      5-min Rain = 0
KHA3 240055Z 00007KT 15/13 A2999 RMK A01 T01520130  RH  087%=      5-min Rain = 0
KHA3 240056Z 01006KT 15/13 A2999 RMK A01 T01520132  RH  087%=      5-min Rain = 0
KHA3 240057Z 01006KT 15/13 A2999 RMK A01 T01520132  RH  088%=      5-min Rain = 0
KHA3 240058Z 01007KT 15/13 A2999 RMK A01 T01520133  RH  088%=      5-min Rain = 0
KHA3 240059Z 00006KT 15/13 A2999 RMK A01 T01530132  RH  088%=      5-min Rain = 0
KHA3 240100Z 00007KT 15/13 A2999 RMK A01 T01530133  RH  088%=      5-min Rain = 0
KHA3 240101Z 00008KT 15/13 A2999 RMK A01 T01520132  RH  088%=      5-min Rain = 0
KHA3 240102Z 00008KT 15/13 A2999 RMK A01 T01520131  RH  087%=      5-min Rain = 0
KHA3 240103Z 00009KT 15/13 A2999 RMK A01 T01520131  RH  087%=      5-min Rain = 0
KHA3 240104Z 00009KT 15/13 A2999 RMK A01 T01520130  RH  086%=      5-min Rain = 0
KHA3 240105Z 00009KT 15/13 A2999 RMK A01 T01530131  RH  087%=      5-min Rain = 0
KHA3 240106Z 01009KT 15/13 A2999 RMK A01 T01520130  RH  086%=      5-min Rain = 0
KHA3 240107Z 01008KT 15/13 A2999 RMK A01 T01520130  RH  087%=      5-min Rain = 0
KHA3 240108Z 00007KT 15/13 A2999 RMK A01 T01520131  RH  087%=      5-min Rain = 0
KHA3 240109Z 01007KT 15/13 A2999 RMK A01 T01520131  RH  087%=      5-min Rain = 0
KHA3 240110Z 01008KT 15/13 A2999 RMK A01 T01520131  RH  087%=      5-min Rain = 0
KHA3 240111Z 01007KT 15/13 A2999 RMK A01 T01520131  RH  087%=      5-min Rain = 0
KHA3 240112Z 01006KT 15/13 A2999 RMK A01 T01520132  RH  088%=      5-min Rain = 0
KHA3 240113Z 01008KT 15/13 A2999 RMK A01 T01520132  RH  088%=      5-min Rain = 0
KHA3 240114Z 01008KT 15/13 A2999 RMK A01 T01520131  RH  088%=      5-min Rain = 0
KHA3 240115Z 01008KT 15/13 A2999 RMK A01 T01510131  RH  087%=      5-min Rain = 0
KHA3 240116Z 01007KT 15/13 A2999 RMK A01 T01520130  RH  087%=      5-min Rain = 0
KHA3 240117Z 01007KT 15/13 A2999 RMK A01 T01520130  RH  087%=      5-min Rain = 0
KHA3 240118Z 01008KT 15/13 A2999 RMK A01 T01520131  RH  087%=      5-min Rain = 0
KHA3 240119Z 01007KT 15/13 A2999 RMK A01 T01520130  RH  087%=      5-min Rain = 0
KHA3 240120Z 01006KT 15/13 A2999 RMK A01 T01520131  RH  088%=      5-min Rain = 0
KHA3 240121Z 01006KT 15/13 A2999 RMK A01 T01510132  RH  088%=      5-min Rain = 0
KHA3 240122Z 01007KT 15/13 A2999 RMK A01 T01510132  RH  088%=      5-min Rain = 0
KHA3 240123Z 02006KT 15/13 A2999 RMK A01 T01510132  RH  088%=      5-min Rain = 0
KHA3 240124Z 02005KT 15/13 A2999 RMK A01 T01510131  RH  088%=      5-min Rain = 0
KHA3 240125Z 02006KT 15/13 A2999 RMK A01 T01510131  RH  088%=      5-min Rain = 0
KHA3 240126Z 02005KT 15/13 A2999 RMK A01 T01510131  RH  088%=      5-min Rain = 0
KHA3 240127Z 02004KT 15/13 A30 RMK A01 T01510131  RH  088%=      5-min Rain = 0
KHA3 240128Z 02003KT 15/13 A30 RMK A01 T01510132  RH  089%=      5-min Rain = 0
KHA3 240129Z 02004KT 15/13 A30 RMK A01 T01510132  RH  089%=      5-min Rain = 0
KHA3 240130Z 02003KT 15/13 A30 RMK A01 T01510132  RH  089%=      5-min Rain = 0
KHA3 240131Z 03003KT 15/13 A30 RMK A01 T01500132  RH  089%=      5-min Rain = 0
KHA3 240132Z 02004KT 15/13 A30 RMK A01 T01510132  RH  089%=      5-min Rain = 0
KHA3 240133Z 02004KT 15/13 A30 RMK A01 T01510132  RH  089%=      5-min Rain = 0
KHA3 240134Z 02005KT 15/13 A30 RMK A01 T01510132  RH  089%=      5-min Rain = 0
KHA3 240135Z 02006KT 15/13 A30 RMK A01 T01510132  RH  089%=      5-min Rain = 0
KHA3 240136Z 01007KT 15/13 A30 RMK A01 T01510132  RH  089%=      5-min Rain = 0
KHA3 240137Z 36005KT 15/13 A30 RMK A01 T01510132  RH  088%=      5-min Rain = 0
KHA3 240138Z 34003KT 15/13 A30 RMK A01 T01510132  RH  089%=      5-min Rain = 0
KHA3 240139Z 36004KT 15/13 A30 RMK A01 T01510132  RH  089%=      5-min Rain = 0
KHA3 240140Z 01005KT 15/13 A2999 RMK A01 T01500133  RH  089%=      5-min Rain = 0
KHA3 240141Z 02005KT 15/13 A2999 RMK A01 T01500133  RH  089%=      5-min Rain = 0
KHA3 240142Z 02005KT 15/13 A2999 RMK A01 T01500133  RH  089%=      5-min Rain = 0
KHA3 240143Z 02005KT 15/13 A2999 RMK A01 T01500133  RH  090%=      5-min Rain = 0
KHA3 240144Z 02005KT 15/13 A2999 RMK A01 T01500133  RH  090%=      5-min Rain = 0
KHA3 240145Z 03005KT 15/13 A2999 RMK A01 T01500134  RH  090%=      5-min Rain = 0
KHA3 240146Z 03005KT 15/13 A30 RMK A01 T01500133  RH  090%=      5-min Rain = 0
KHA3 240147Z 03005KT 15/13 A30 RMK A01 T01500133  RH  090%=      5-min Rain = 0
KHA3 240148Z 03005KT 15/13 A30 RMK A01 T01500133  RH  090%=      5-min Rain = 0
KHA3 240149Z 03005KT 15/13 A30 RMK A01 T01500132  RH  089%=      5-min Rain = 0
KHA3 240150Z 04005KT 15/13 A30 RMK A01 T01500132  RH  089%=      5-min Rain = 0
KHA3 240151Z 03005KT 15/13 A30 RMK A01 T01500132  RH  089%=      5-min Rain = 0
KHA3 240152Z 03006KT 15/13 A30 RMK A01 T01490131  RH  089%=      5-min Rain = 0
KHA3 240153Z 03006KT 15/13 A30 RMK A01 T01500131  RH  088%=      5-min Rain = 0
KHA3 240154Z 03006KT 15/13 A30 RMK A01 T01500131  RH  088%=      5-min Rain = 0
KHA3 240155Z 03006KT 15/13 A30 RMK A01 T01500131  RH  089%=      5-min Rain = 0
KHA3 240156Z 03006KT 15/13 A30 RMK A01 T01500131  RH  089%=      5-min Rain = 0
KHA3 240157Z 03006KT 15/13 A30 RMK A01 T01500131  RH  089%=      5-min Rain = 0
KHA3 240158Z 03006KT 15/13 A30 RMK A01 T01500131  RH  089%=      5-min Rain = 0
KHA3 240159Z 03006KT 15/13 A30 RMK A01 T01490131  RH  089%=      5-min Rain = 0
KHA3 240200Z 03006KT 15/13 A30 RMK A01 T01490130  RH  089%=      5-min Rain = 0
KHA3 240201Z 03005KT 15/13 A30 RMK A01 T01490131  RH  089%=      5-min Rain = 0
KHA3 240202Z 03005KT 15/13 A30 RMK A01 T01490131  RH  089%=      5-min Rain = 0
KHA3 240203Z 03005KT 15/13 A30 RMK A01 T01490131  RH  089%=      5-min Rain = 0
KHA3 240204Z 04005KT 15/13 A30 RMK A01 T01490131  RH  089%=      5-min Rain = 0
KHA3 240205Z 04004KT 15/13 A30 RMK A01 T01480131  RH  089%=      5-min Rain = 0
KHA3 240206Z 04005KT 15/13 A30 RMK A01 T01480132  RH  090%=      5-min Rain = 0
KHA3 240207Z 04005KT 15/13 A30 RMK A01 T01480131  RH  089%=      5-min Rain = 0
KHA3 240208Z 03006KT 15/13 A30 RMK A01 T01480130  RH  089%=      5-min Rain = 0
KHA3 240209Z 03006KT 15/13 A30 RMK A01 T01480129  RH  088%=      5-min Rain = 0
KHA3 240210Z 03006KT 15/13 A30 RMK A01 T01490129  RH  088%=      5-min Rain = 0
KHA3 240211Z 03005KT 15/13 A30 RMK A01 T01490128  RH  088%=      5-min Rain = 0
KHA3 240212Z 02005KT 15/13 A30 RMK A01 T01490129  RH  088%=      5-min Rain = 0
KHA3 240213Z 03006KT 15/13 A30 RMK A01 T01490130  RH  088%=      5-min Rain = 0
KHA3 240214Z 02006KT 15/13 A30 RMK A01 T01480130  RH  089%=      5-min Rain = 0
KHA3 240215Z 02005KT 15/13 A30 RMK A01 T01480130  RH  089%=      5-min Rain = 0
KHA3 240216Z 02006KT 15/13 A30 RMK A01 T01480130  RH  089%=      5-min Rain = 0
KHA3 240217Z 02006KT 15/13 A30 RMK A01 T01480130  RH  089%=      5-min Rain = 0
KHA3 240218Z 02006KT 15/13 A30 RMK A01 T01480130  RH  089%=      5-min Rain = 0
KHA3 240219Z 02006KT 15/13 A30 RMK A01 T01480129  RH  089%=      5-min Rain = 0
KHA3 240220Z 02006KT 15/13 A2999 RMK A01 T01470129  RH  089%=      5-min Rain = 0
KHA3 240221Z 02006KT 15/13 A2999 RMK A01 T01480130  RH  089%=      5-min Rain = 0
KHA3 240222Z 02006KT 15/13 A2999 RMK A01 T01480130  RH  089%=      5-min Rain = 0
KHA3 240223Z 02005KT 15/13 A2999 RMK A01 T01470130  RH  089%=      5-min Rain = 0
KHA3 240224Z 02006KT 15/13 A2999 RMK A01 T01470130  RH  089%=      5-min Rain = 0
KHA3 240225Z 02006KT 15/13 A30 RMK A01 T01480130  RH  089%=      5-min Rain = 0
KHA3 240226Z 02006KT 15/13 A30 RMK A01 T01480130  RH  089%=      5-min Rain = 0
KHA3 240227Z 02005KT 15/13 A2999 RMK A01 T01470130  RH  089%=      5-min Rain = 0
KHA3 240228Z 01006KT 15/13 A2999 RMK A01 T01470130  RH  089%=      5-min Rain = 0
KHA3 240229Z 01006KT 15/13 A2999 RMK A01 T01470130  RH  089%=      5-min Rain = 0
KHA3 240230Z 01007KT 15/13 A2999 RMK A01 T01470130  RH  090%=      5-min Rain = 0
KHA3 240231Z 00007KT 15/13 A2999 RMK A01 T01470130  RH  089%=      5-min Rain = 0
KHA3 240232Z 00007KT 15/13 A2999 RMK A01 T01460130  RH  090%=      5-min Rain = 0
KHA3 240233Z 00007KT 15/13 A2999 RMK A01 T01460130  RH  090%=      5-min Rain = 0
KHA3 240234Z 00007KT 15/13 A2999 RMK A01 T01460130  RH  090%=      5-min Rain = 0
KHA3 240235Z 00007KT 15/13 A2999 RMK A01 T01460129  RH  090%=      5-min Rain = 0
KHA3 240236Z 00007KT 15/13 A2999 RMK A01 T01460129  RH  090%=      5-min Rain = 0
KHA3 240237Z 01006KT 15/13 A2999 RMK A01 T01450129  RH  090%=      5-min Rain = 0.01
KHA3 240238Z 01006KT 15/13 A2999 RMK A01 T01450129  RH  090%=      5-min Rain = 0
KHA3 240239Z 01006KT 15/13 A30 RMK A01 T01450129  RH  090%=      5-min Rain = 0
KHA3 240240Z 02006KT 15/13 A30 RMK A01 T01450129  RH  090%=      5-min Rain = 0
KHA3 240241Z 02005KT 15/13 A30 RMK A01 T01450128  RH  090%=      5-min Rain = 0
KHA3 240242Z 02005KT 15/13 A30 RMK A01 T01450128  RH  090%=      5-min Rain = 0
KHA3 240243Z 02006KT 15/13 A30 RMK A01 T01450128  RH  090%=      5-min Rain = 0
KHA3 240244Z 02005KT 14/13 A30 RMK A01 T01440128  RH  090%=      5-min Rain = 0
KHA3 240245Z 02005KT 14/13 A30 RMK A01 T01440128  RH  090%=      5-min Rain = 0
KHA3 240246Z 02005KT 14/13 A30 RMK A01 T01440128  RH  090%=      5-min Rain = 0
KHA3 240247Z 02005KT 14/13 A30 RMK A01 T01430128  RH  090%=      5-min Rain = 0
KHA3 240248Z 02005KT 14/13 A30 RMK A01 T01440128  RH  090%=      5-min Rain = 0
KHA3 240249Z 02005KT 14/13 A30 RMK A01 T01430128  RH  090%=      5-min Rain = 0
KHA3 240250Z 01006KT 14/13 A30 RMK A01 T01430128  RH  090%=      5-min Rain = 0
KHA3 240251Z 02004KT 14/13 A30 RMK A01 T01430128  RH  090%=      5-min Rain = 0
KHA3 240252Z 02004KT 14/13 A3001 RMK A01 T01430128  RH  090%=      5-min Rain = 0
KHA3 240253Z 02004KT 14/13 A3001 RMK A01 T01430128  RH  090%=      5-min Rain = 0
KHA3 240254Z 02004KT 14/13 A3001 RMK A01 T01430128  RH  090%=      5-min Rain = 0
KHA3 240255Z 03004KT 14/13 A3001 RMK A01 T01430128  RH  090%=      5-min Rain = 0
KHA3 240256Z 03005KT 14/13 A3001 RMK A01 T01430128  RH  090%=      5-min Rain = 0
KHA3 240257Z 03004KT 14/13 A3001 RMK A01 T01440128  RH  090%=      5-min Rain = 0
KHA3 240258Z 03004KT 14/13 A3001 RMK A01 T01430128  RH  090%=      5-min Rain = 0
KHA3 240259Z 03004KT 14/13 A3001 RMK A01 T01430128  RH  090%=      5-min Rain = 0
KHA3 240300Z 03004KT 14/13 A3001 RMK A01 T01430128  RH  090%=      5-min Rain = 0
KHA3 240301Z 03003KT 14/13 A3001 RMK A01 T01430128  RH  090%=      5-min Rain = 0
KHA3 240302Z 02003KT 14/13 A3001 RMK A01 T01430128  RH  090%=      5-min Rain = 0
KHA3 240303Z 02003KT 14/13 A3001 RMK A01 T01430128  RH  090%=      5-min Rain = 0
KHA3 240304Z 02003KT 14/13 A3001 RMK A01 T01430128  RH  090%=      5-min Rain = 0
KHA3 240305Z 03003KT 14/13 A3001 RMK A01 T01430128  RH  090%=      5-min Rain = 0
KHA3 240306Z 03004KT 14/13 A3001 RMK A01 T01430128  RH  090%=      5-min Rain = 0
KHA3 240307Z 03004KT 14/13 A3001 RMK A01 T01430128  RH  090%=      5-min Rain = 0
KHA3 240308Z 03004KT 14/13 A3001 RMK A01 T01430127  RH  090%=      5-min Rain = 0
KHA3 240309Z 03004KT 14/13 A3001 RMK A01 T01440127  RH  090%=      5-min Rain = 0
KHA3 240310Z 04005KT 14/13 A3001 RMK A01 T01440128  RH  090%=      5-min Rain = 0
KHA3 240311Z 04005KT 14/13 A30 RMK A01 T01440128  RH  090%=      5-min Rain = 0
KHA3 240312Z 04005KT 14/13 A30 RMK A01 T01430128  RH  090%=      5-min Rain = 0
KHA3 240313Z 03005KT 14/13 A30 RMK A01 T01430128  RH  091%=      5-min Rain = 0
KHA3 240314Z 03005KT 14/13 A30 RMK A01 T01430128  RH  091%=      5-min Rain = 0
KHA3 240315Z 03005KT 14/13 A30 RMK A01 T01420128  RH  091%=      5-min Rain = 0
KHA3 240316Z 03005KT 14/13 A30 RMK A01 T01420128  RH  091%=      5-min Rain = 0
KHA3 240317Z 03005KT 14/13 A30 RMK A01 T01420128  RH  091%=      5-min Rain = 0
KHA3 240318Z 03005KT 14/13 A30 RMK A01 T01420128  RH  091%=      5-min Rain = 0
KHA3 240319Z 03005KT 14/13 A30 RMK A01 T01410128  RH  091%=      5-min Rain = 0
KHA3 240320Z 03005KT 14/13 A30 RMK A01 T01420128  RH  091%=      5-min Rain = 0
KHA3 240321Z 03005KT 14/13 A30 RMK A01 T01410127  RH  091%=      5-min Rain = 0
KHA3 240322Z 03004KT 14/13 A30 RMK A01 T01420128  RH  091%=      5-min Rain = 0
KHA3 240323Z 03004KT 14/13 A30 RMK A01 T01410128  RH  091%=      5-min Rain = 0
KHA3 240324Z 04004KT 14/13 A30 RMK A01 T01410127  RH  091%=      5-min Rain = 0
KHA3 240325Z 04004KT 14/13 A30 RMK A01 T01410127  RH  091%=      5-min Rain = 0
KHA3 240326Z 04003KT 14/13 A30 RMK A01 T01410127  RH  092%=      5-min Rain = 0
KHA3 240327Z 04004KT 14/13 A30 RMK A01 T01400127  RH  092%=      5-min Rain = 0
KHA3 240328Z 03003KT 14/13 A30 RMK A01 T01400127  RH  092%=      5-min Rain = 0
KHA3 240329Z 03003KT 14/13 A30 RMK A01 T01400127  RH  092%=      5-min Rain = 0
KHA3 240330Z 02003KT 14/13 A30 RMK A01 T01400127  RH  092%=      5-min Rain = 0
KHA3 240331Z 02003KT 14/13 A30 RMK A01 T01400127  RH  092%=      5-min Rain = 0
KHA3 240332Z 02003KT 14/13 A30 RMK A01 T01390127  RH  092%=      5-min Rain = 0
KHA3 240333Z 01003KT 14/13 A30 RMK A01 T01390127  RH  092%=      5-min Rain = 0
KHA3 240334Z 01003KT 14/13 A30 RMK A01 T01390127  RH  093%=      5-min Rain = 0
KHA3 240335Z 01003KT 14/13 A30 RMK A01 T01390127  RH  093%=      5-min Rain = 0
KHA3 240336Z 00003KT 14/13 A3001 RMK A01 T01390127  RH  093%=      5-min Rain = 0
KHA3 240337Z 00003KT 14/13 A3001 RMK A01 T01390127  RH  093%=      5-min Rain = 0
KHA3 240338Z 00003KT 14/13 A3001 RMK A01 T01390127  RH  093%=      5-min Rain = 0
KHA3 240339Z 35003KT 14/13 A3001 RMK A01 T01390128  RH  093%=      5-min Rain = 0
KHA3 240340Z 35002KT 14/13 A3001 RMK A01 T01380128  RH  093%=      5-min Rain = 0
KHA3 240341Z 35002KT 14/13 A3002 RMK A01 T01380128  RH  093%=      5-min Rain = 0
KHA3 240342Z 34003KT 14/13 A3002 RMK A01 T01380128  RH  093%=      5-min Rain = 0
KHA3 240343Z 34003KT 14/13 A3001 RMK A01 T01380128  RH  093%=      5-min Rain = 0
KHA3 240344Z 34003KT 14/13 A3001 RMK A01 T01380128  RH  093%=      5-min Rain = 0
KHA3 240345Z 34003KT 14/13 A3001 RMK A01 T01390128  RH  093%=      5-min Rain = 0
KHA3 240346Z 34003KT 14/13 A3001 RMK A01 T01380128  RH  093%=      5-min Rain = 0
KHA3 240347Z 34004KT 14/13 A3001 RMK A01 T01390128  RH  093%=      5-min Rain = 0
KHA3 240348Z 34004KT 14/13 A3001 RMK A01 T01380128  RH  093%=      5-min Rain = 0
KHA3 240349Z 34004KT 14/13 A3001 RMK A01 T01380128  RH  093%=      5-min Rain = 0
KHA3 240350Z 34004KT 14/13 A30 RMK A01 T01380128  RH  094%=      5-min Rain = 0
KHA3 240351Z 34004KT 14/13 A30 RMK A01 T01380128  RH  094%=      5-min Rain = 0
KHA3 240352Z 34005KT 14/13 A30 RMK A01 T01380128  RH  094%=      5-min Rain = 0
KHA3 240353Z 34005KT 14/13 A30 RMK A01 T01380128  RH  094%=      5-min Rain = 0
KHA3 240354Z 33005KT 14/13 A30 RMK A01 T01370128  RH  094%=      5-min Rain = 0
KHA3 240355Z 33005KT 14/13 A30 RMK A01 T01370127  RH  094%=      5-min Rain = 0
KHA3 240356Z 33005KT 14/13 A30 RMK A01 T01370127  RH  094%=      5-min Rain = 0
KHA3 240357Z 33005KT 14/13 A30 RMK A01 T01370127  RH  094%=      5-min Rain = 0
KHA3 240358Z 33005KT 14/13 A30 RMK A01 T01360127  RH  094%=      5-min Rain = 0
KHA3 240359Z 33006KT 14/13 A30 RMK A01 T01360127  RH  094%=      5-min Rain = 0
KHA3 240400Z 33006KT 14/13 A30 RMK A01 T01360127  RH  094%=      5-min Rain = 0
KHA3 240401Z 33006KT 14/13 A30 RMK A01 T01350127  RH  095%=      5-min Rain = 0
KHA3 240402Z 33006KT 14/13 A2999 RMK A01 T01350127  RH  095%=      5-min Rain = 0
KHA3 240403Z 33006KT 14/13 A2999 RMK A01 T01360127  RH  095%=      5-min Rain = 0
KHA3 240404Z 33007KT 14/13 A2999 RMK A01 T01350127  RH  095%=      5-min Rain = 0
KHA3 240405Z 33007KT 14/13 A2999 RMK A01 T01360128  RH  095%=      5-min Rain = 0
KHA3 240406Z 32007KT 14/13 A2999 RMK A01 T01350127  RH  095%=      5-min Rain = 0
KHA3 240407Z 32007KT 14/13 A2999 RMK A01 T01360128  RH  095%=      5-min Rain = 0
KHA3 240408Z 32007KT 14/13 A2999 RMK A01 T01350128  RH  095%=      5-min Rain = 0
KHA3 240409Z 32007KT 14/13 A2999 RMK A01 T01360128  RH  095%=      5-min Rain = 0
KHA3 240410Z 33006KT 14/13 A2999 RMK A01 T01360128  RH  095%=      5-min Rain = 0
KHA3 240411Z 33006KT 14/13 A2999 RMK A01 T01360128  RH  095%=      5-min Rain = 0
KHA3 240412Z 33005KT 14/13 A2999 RMK A01 T01360128  RH  095%=      5-min Rain = 0
KHA3 240413Z 33005KT 14/13 A30 RMK A01 T01360128  RH  095%=      5-min Rain = 0
KHA3 240414Z 33005KT 14/13 A30 RMK A01 T01360128  RH  095%=      5-min Rain = 0
KHA3 240415Z 33005KT 14/13 A30 RMK A01 T01360128  RH  095%=      5-min Rain = 0
KHA3 240416Z 33005KT 14/13 A30 RMK A01 T01360128  RH  095%=      5-min Rain = 0
KHA3 240417Z 33005KT 14/13 A30 RMK A01 T01360128  RH  095%=      5-min Rain = 0
KHA3 240418Z 32005KT 14/13 A3001 RMK A01 T01360128  RH  095%=      5-min Rain = 0
KHA3 240419Z 32005KT 14/13 A3001 RMK A01 T01360128  RH  095%=      5-min Rain = 0
KHA3 240420Z 32005KT 14/13 A3001 RMK A01 T01360128  RH  095%=      5-min Rain = 0
KHA3 240421Z 32005KT 14/13 A3001 RMK A01 T01360128  RH  095%=      5-min Rain = 0
KHA3 240422Z 32005KT 14/13 A3001 RMK A01 T01360128  RH  095%=      5-min Rain = 0
KHA3 240423Z 32005KT 14/13 A3001 RMK A01 T01360128  RH  095%=      5-min Rain = 0
KHA3 240424Z 32004KT 14/13 A3001 RMK A01 T01360128  RH  095%=      5-min Rain = 0
KHA3 240425Z 31004KT 14/13 A3001 RMK A01 T01360128  RH  095%=      5-min Rain = 0
KHA3 240426Z 31004KT 14/13 A3001 RMK A01 T01360128  RH  095%=      5-min Rain = 0
KHA3 240427Z 32004KT 14/13 A3001 RMK A01 T01360128  RH  095%=      5-min Rain = 0
KHA3 240428Z 31004KT 14/13 A3001 RMK A01 T01350128  RH  095%=      5-min Rain = 0
KHA3 240429Z 31004KT 14/13 A3001 RMK A01 T01360128  RH  095%=      5-min Rain = 0
KHA3 240430Z 32004KT 14/13 A3001 RMK A01 T01360128  RH  095%=      5-min Rain = 0
KHA3 240431Z 32004KT 14/13 A3001 RMK A01 T01350127  RH  095%=      5-min Rain = 0
KHA3 240432Z 31004KT 14/13 A3001 RMK A01 T01350127  RH  095%=      5-min Rain = 0
KHA3 240433Z 32004KT 14/13 A3002 RMK A01 T01350127  RH  095%=      5-min Rain = 0
KHA3 240434Z 32005KT 14/13 A3002 RMK A01 T01350127  RH  095%=      5-min Rain = 0
KHA3 240435Z 32004KT 14/13 A3002 RMK A01 T01350127  RH  095%=      5-min Rain = 0
KHA3 240436Z 32004KT 14/13 A3002 RMK A01 T01350127  RH  095%=      5-min Rain = 0
KHA3 240437Z 32004KT 14/13 A3002 RMK A01 T01350127  RH  095%=      5-min Rain = 0
KHA3 240438Z 32004KT 14/13 A3002 RMK A01 T01350127  RH  095%=      5-min Rain = 0
KHA3 240439Z 32004KT 14/13 A3002 RMK A01 T01350127  RH  095%=      5-min Rain = 0
KHA3 240440Z 32004KT 14/13 A3001 RMK A01 T01350128  RH  095%=      5-min Rain = 0
KHA3 240441Z 32004KT 14/13 A3001 RMK A01 T01350127  RH  095%=      5-min Rain = 0
KHA3 240442Z 32004KT 14/13 A3001 RMK A01 T01350127  RH  095%=      5-min Rain = 0
KHA3 240443Z 32004KT 14/13 A3001 RMK A01 T01350127  RH  095%=      5-min Rain = 0
KHA3 240444Z 32005KT 14/13 A3001 RMK A01 T01350127  RH  095%=      5-min Rain = 0
KHA3 240445Z 32005KT 14/13 A3001 RMK A01 T01350127  RH  095%=      5-min Rain = 0
KHA3 240446Z 32005KT 13/13 A3001 RMK A01 T01340127  RH  095%=      5-min Rain = 0
KHA3 240447Z 31005KT 13/13 A3001 RMK A01 T01340127  RH  095%=      5-min Rain = 0
KHA3 240448Z 31005KT 13/13 A3001 RMK A01 T01340127  RH  096%=      5-min Rain = 0
KHA3 240449Z 31005KT 13/13 A3001 RMK A01 T01340127  RH  096%=      5-min Rain = 0
KHA3 240450Z 31005KT 13/13 A3001 RMK A01 T01330127  RH  096%=      5-min Rain = 0
KHA3 240451Z 31005KT 13/13 A3001 RMK A01 T01330127  RH  096%=      5-min Rain = 0
KHA3 240452Z 31005KT 13/13 A3001 RMK A01 T01330127  RH  096%=      5-min Rain = 0
KHA3 240453Z 31005KT 13/13 A3001 RMK A01 T01330127  RH  096%=      5-min Rain = 0
KHA3 240454Z 31005KT 13/13 A3001 RMK A01 T01330127  RH  096%=      5-min Rain = 0
KHA3 240455Z 31005KT 13/13 A3001 RMK A01 T01340128  RH  096%=      5-min Rain = 0
KHA3 240456Z 31005KT 13/13 A3001 RMK A01 T01340128  RH  096%=      5-min Rain = 0
KHA3 240457Z 31004KT 13/13 A3001 RMK A01 T01340128  RH  096%=      5-min Rain = 0
KHA3 240458Z 32004KT 13/13 A3001 RMK A01 T01340128  RH  096%=      5-min Rain = 0
KHA3 240459Z 32004KT 13/13 A3001 RMK A01 T01340128  RH  096%=      5-min Rain = 0

Page generated in 0.1279 seconds.